Time,TemperatureF,DewpointF,PressureIn,WindDirection,WindDirectionDegrees,WindSpeedMPH,WindSpeedGustMPH,Humidity,HourlyPrecipIn,Conditions,Clouds,dailyrainin,SoftwareType,DateUTC
2013-01-26 00:02:00,-0.1,-5.6,30.34,West,265,2.0,2.0,77,0.00,,,0.00,Wunderground v.1.13,2013-01-26 06:02:00,
2013-01-26 00:05:00,-0.2,-5.7,30.34,West,266,2.0,2.0,77,0.00,,,0.00,Wunderground v.1.13,2013-01-26 06:05:00,
2013-01-26 00:06:00,-0.2,-5.7,30.34,West,265,1.0,2.0,77,0.00,,,0.00,Wunderground v.1.13,2013-01-26 06:06:00,
2013-01-26 00:07:00,-0.2,-5.7,30.34,West,265,1.0,2.0,77,0.00,,,0.00,Wunderground v.1.13,2013-01-26 06:07:00,
2013-01-26 00:08:00,-0.3,-5.8,30.34,West,265,1.0,2.0,77,0.00,,,0.00,Wunderground v.1.13,2013-01-26 06:08:00,
2013-01-26 00:12:00,-0.4,-5.9,30.34,West,266,1.0,2.0,77,0.00,,,0.00,Wunderground v.1.13,2013-01-26 06:12:00,
2013-01-26 00:14:00,-0.4,-5.9,30.34,West,265,1.0,2.0,77,0.00,,,0.00,Wunderground v.1.13,2013-01-26 06:14:00,
2013-01-26 00:16:00,-0.5,-6.0,30.34,West,266,1.0,2.0,77,0.00,,,0.00,Wunderground v.1.13,2013-01-26 06:16:00,
2013-01-26 00:19:00,-0.6,-5.8,30.35,West,265,1.0,2.0,78,0.00,,,0.00,Wunderground v.1.13,2013-01-26 06:19:00,
2013-01-26 00:21:00,-0.6,-5.8,30.35,West,266,1.0,2.0,78,0.00,,,0.00,Wunderground v.1.13,2013-01-26 06:21:00,
2013-01-26 00:23:00,-0.6,-5.8,30.35,West,265,1.0,3.0,78,0.00,,,0.00,Wunderground v.1.13,2013-01-26 06:23:00,
2013-01-26 00:25:00,-0.6,-5.8,30.35,West,266,1.0,2.0,78,0.00,,,0.00,Wunderground v.1.13,2013-01-26 06:25:00,
2013-01-26 00:30:00,-0.6,-5.8,30.34,West,266,2.0,2.0,78,0.00,,,0.00,Wunderground v.1.13,2013-01-26 06:30:00,
2013-01-26 00:36:00,-0.7,-6.2,30.34,West,266,2.0,2.0,77,0.00,,,0.00,Wunderground v.1.13,2013-01-26 06:36:00,
2013-01-26 00:37:00,-0.8,-6.3,30.34,West,265,2.0,2.0,77,0.00,,,0.00,Wunderground v.1.13,2013-01-26 06:37:00,
2013-01-26 00:38:00,-0.8,-6.3,30.34,West,266,1.0,2.0,77,0.00,,,0.00,Wunderground v.1.13,2013-01-26 06:38:00,
2013-01-26 00:40:00,-0.9,-6.4,30.34,West,266,1.0,1.0,77,0.00,,,0.00,Wunderground v.1.13,2013-01-26 06:40:00,
2013-01-26 00:43:00,-1.1,-6.6,30.35,West,266,1.0,3.0,77,0.00,,,0.00,Wunderground v.1.13,2013-01-26 06:43:00,
2013-01-26 00:46:00,-1.2,-6.4,30.34,West,265,1.0,2.0,78,0.00,,,0.00,Wunderground v.1.13,2013-01-26 06:46:00,
2013-01-26 00:47:00,-1.1,-6.3,30.35,West,266,1.0,2.0,78,0.00,,,0.00,Wunderground v.1.13,2013-01-26 06:47:00,
2013-01-26 00:48:00,-1.2,-6.4,30.35,West,266,1.0,2.0,78,0.00,,,0.00,Wunderground v.1.13,2013-01-26 06:48:00,
2013-01-26 00:51:00,-1.1,-6.3,30.35,West,265,1.0,2.0,78,0.00,,,0.00,Wunderground v.1.13,2013-01-26 06:51:00,
2013-01-26 00:52:00,-1.1,-6.3,30.35,West,266,1.0,2.0,78,0.00,,,0.00,Wunderground v.1.13,2013-01-26 06:52:00,
2013-01-26 00:53:00,-1.2,-6.4,30.35,West,266,1.0,2.0,78,0.00,,,0.00,Wunderground v.1.13,2013-01-26 06:53:00,
2013-01-26 00:54:00,-1.2,-6.4,30.35,West,266,1.0,2.0,78,0.00,,,0.00,Wunderground v.1.13,2013-01-26 06:54:00,
2013-01-26 00:56:00,-1.2,-6.1,30.35,West,266,1.0,1.0,79,0.00,,,0.00,Wunderground v.1.13,2013-01-26 06:56:00,
2013-01-26 00:59:00,-1.3,-6.2,30.35,West,265,1.0,2.0,79,0.00,,,0.00,Wunderground v.1.13,2013-01-26 06:59:00,
2013-01-26 01:00:00,-1.3,-6.2,30.35,West,266,1.0,2.0,79,0.00,,,0.00,Wunderground v.1.13,2013-01-26 07:00:00,
2013-01-26 01:03:00,-1.4,-6.3,30.35,West,266,1.0,2.0,79,0.00,,,0.00,Wunderground v.1.13,2013-01-26 07:03:00,
2013-01-26 01:05:00,-1.4,-6.3,30.35,West,266,2.0,2.0,79,0.00,,,0.00,Wunderground v.1.13,2013-01-26 07:05:00,
2013-01-26 01:06:00,-1.4,-6.3,30.35,West,266,2.0,2.0,79,0.00,,,0.00,Wunderground v.1.13,2013-01-26 07:06:00,
2013-01-26 01:12:00,-1.4,-6.3,30.36,West,265,2.0,2.0,79,0.00,,,0.00,Wunderground v.1.13,2013-01-26 07:12:00,
2013-01-26 01:13:00,-1.5,-6.4,30.36,West,266,1.0,2.0,79,0.00,,,0.00,Wunderground v.1.13,2013-01-26 07:13:00,
2013-01-26 01:14:00,-1.5,-6.4,30.36,West,266,1.0,2.0,79,0.00,,,0.00,Wunderground v.1.13,2013-01-26 07:14:00,
2013-01-26 01:18:00,-1.5,-6.4,30.35,West,266,1.0,2.0,79,0.00,,,0.00,Wunderground v.1.13,2013-01-26 07:18:00,
2013-01-26 01:20:00,-1.5,-6.4,30.35,West,265,1.0,1.0,79,0.00,,,0.00,Wunderground v.1.13,2013-01-26 07:20:00,
2013-01-26 01:22:00,-1.6,-6.5,30.35,West,266,1.0,1.0,79,0.00,,,0.00,Wunderground v.1.13,2013-01-26 07:22:00,
2013-01-26 01:24:00,-1.6,-6.5,30.35,West,265,1.0,2.0,79,0.00,,,0.00,Wunderground v.1.13,2013-01-26 07:24:00,
2013-01-26 01:26:00,-1.6,-6.5,30.35,West,266,1.0,2.0,79,0.00,,,0.00,Wunderground v.1.13,2013-01-26 07:26:00,
2013-01-26 01:29:00,-1.6,-6.5,30.35,West,265,2.0,2.0,79,0.00,,,0.00,Wunderground v.1.13,2013-01-26 07:29:00,
2013-01-26 01:32:00,-1.6,-6.5,30.35,West,266,2.0,2.0,79,0.00,,,0.00,Wunderground v.1.13,2013-01-26 07:32:00,
2013-01-26 01:36:00,-1.7,-6.6,30.35,West,266,2.0,2.0,79,0.00,,,0.00,Wunderground v.1.13,2013-01-26 07:36:00,
2013-01-26 01:37:00,-1.7,-6.6,30.35,West,266,1.0,2.0,79,0.00,,,0.00,Wunderground v.1.13,2013-01-26 07:37:00,
2013-01-26 01:38:00,-1.7,-6.4,30.35,West,266,1.0,2.0,80,0.00,,,0.00,Wunderground v.1.13,2013-01-26 07:38:00,
2013-01-26 01:40:00,-1.8,-6.7,30.35,West,266,1.0,1.0,79,0.00,,,0.00,Wunderground v.1.13,2013-01-26 07:40:00,
2013-01-26 01:44:00,-1.8,-6.5,30.35,West,266,1.0,1.0,80,0.00,,,0.00,Wunderground v.1.13,2013-01-26 07:44:00,
2013-01-26 01:45:00,-1.9,-6.6,30.35,West,266,1.0,1.0,80,0.00,,,0.00,Wunderground v.1.13,2013-01-26 07:45:00,
2013-01-26 01:46:00,-1.9,-6.6,30.35,West,266,1.0,1.0,80,0.00,,,0.00,Wunderground v.1.13,2013-01-26 07:46:00,
2013-01-26 01:50:00,-2.0,-6.7,30.35,West,266,1.0,1.0,80,0.00,,,0.00,Wunderground v.1.13,2013-01-26 07:50:00,
2013-01-26 01:52:00,-2.0,-6.7,30.35,West,266,1.0,1.0,80,0.00,,,0.00,Wunderground v.1.13,2013-01-26 07:52:00,
2013-01-26 01:53:00,-2.1,-6.8,30.35,West,266,1.0,1.0,80,0.00,,,0.00,Wunderground v.1.13,2013-01-26 07:53:00,
2013-01-26 01:54:00,-2.1,-6.8,30.35,West,266,1.0,1.0,80,0.00,,,0.00,Wunderground v.1.13,2013-01-26 07:54:00,
2013-01-26 01:59:00,-2.3,-7.0,30.35,West,265,0.0,1.0,80,0.00,,,0.00,Wunderground v.1.13,2013-01-26 07:59:00,
2013-01-26 02:00:00,-2.3,-7.0,30.35,West,266,0.0,1.0,80,0.00,,,0.00,Wunderground v.1.13,2013-01-26 08:00:00,
2013-01-26 02:02:00,-2.4,-7.1,30.35,West,266,0.0,1.0,80,0.00,,,0.00,Wunderground v.1.13,2013-01-26 08:02:00,
2013-01-26 02:04:00,-2.5,-7.1,30.35,West,266,1.0,1.0,80,0.00,,,0.00,Wunderground v.1.13,2013-01-26 08:04:00,
2013-01-26 02:07:00,-2.6,-7.2,30.34,West,266,1.0,1.0,80,0.00,,,0.00,Wunderground v.1.13,2013-01-26 08:07:00,
2013-01-26 02:08:00,-2.6,-7.2,30.34,West,266,1.0,1.0,80,0.00,,,0.00,Wunderground v.1.13,2013-01-26 08:08:00,
2013-01-26 02:12:00,-2.6,-7.2,30.34,West,266,0.0,1.0,80,0.00,,,0.00,Wunderground v.1.13,2013-01-26 08:12:00,
2013-01-26 02:14:00,-2.7,-7.3,30.34,West,266,0.0,1.0,80,0.00,,,0.00,Wunderground v.1.13,2013-01-26 08:14:00,
2013-01-26 02:16:00,-2.7,-7.3,30.34,West,266,0.0,0.0,80,0.00,,,0.00,Wunderground v.1.13,2013-01-26 08:16:00,
2013-01-26 02:18:00,-2.7,-7.3,30.34,West,265,0.0,0.0,80,0.00,,,0.00,Wunderground v.1.13,2013-01-26 08:18:00,
2013-01-26 02:19:00,-2.7,-7.3,30.34,West,266,0.0,0.0,80,0.00,,,0.00,Wunderground v.1.13,2013-01-26 08:19:00,
2013-01-26 02:21:00,-2.8,-7.4,30.34,West,266,0.0,0.0,80,0.00,,,0.00,Wunderground v.1.13,2013-01-26 08:21:00,
2013-01-26 02:23:00,-2.9,-7.5,30.34,West,266,0.0,0.0,80,0.00,,,0.00,Wunderground v.1.13,2013-01-26 08:23:00,
2013-01-26 02:26:00,-2.9,-7.3,30.34,West,266,0.0,0.0,81,0.00,,,0.00,Wunderground v.1.13,2013-01-26 08:26:00,
2013-01-26 02:29:00,-2.9,-7.3,30.34,West,266,0.0,1.0,81,0.00,,,0.00,Wunderground v.1.13,2013-01-26 08:29:00,
2013-01-26 02:30:00,-2.9,-7.3,30.34,West,266,0.0,1.0,81,0.00,,,0.00,Wunderground v.1.13,2013-01-26 08:30:00,
2013-01-26 02:33:00,-3.0,-7.4,30.34,West,266,0.0,1.0,81,0.00,,,0.00,Wunderground v.1.13,2013-01-26 08:33:00,
2013-01-26 02:35:00,-3.1,-7.5,30.34,West,265,1.0,1.0,81,0.00,,,0.00,Wunderground v.1.13,2013-01-26 08:35:00,
2013-01-26 02:36:00,-3.1,-7.5,30.34,West,266,1.0,1.0,81,0.00,,,0.00,Wunderground v.1.13,2013-01-26 08:36:00,
2013-01-26 02:39:00,-3.2,-7.6,30.35,West,265,1.0,1.0,81,0.00,,,0.00,Wunderground v.1.13,2013-01-26 08:39:00,
2013-01-26 02:42:00,-3.3,-7.7,30.35,West,266,1.0,1.0,81,0.00,,,0.00,Wunderground v.1.13,2013-01-26 08:42:00,
2013-01-26 02:43:00,-3.4,-7.8,30.35,West,265,1.0,1.0,81,0.00,,,0.00,Wunderground v.1.13,2013-01-26 08:43:00,
2013-01-26 02:46:00,-3.5,-7.9,30.35,West,266,1.0,2.0,81,0.00,,,0.00,Wunderground v.1.13,2013-01-26 08:46:00,
2013-01-26 02:49:00,-3.5,-7.6,30.35,West,266,1.0,2.0,82,0.00,,,0.00,Wunderground v.1.13,2013-01-26 08:49:00,
2013-01-26 02:50:00,-3.5,-7.6,30.35,West,266,1.0,1.0,82,0.00,,,0.00,Wunderground v.1.13,2013-01-26 08:50:00,
2013-01-26 02:54:00,-3.4,-7.5,30.34,West,266,1.0,1.0,82,0.00,,,0.00,Wunderground v.1.13,2013-01-26 08:54:00,
2013-01-26 02:56:00,-3.4,-7.5,30.34,West,265,0.0,1.0,82,0.00,,,0.00,Wunderground v.1.13,2013-01-26 08:56:00,
2013-01-26 02:57:00,-3.3,-7.4,30.34,West,265,0.0,1.0,82,0.00,,,0.00,Wunderground v.1.13,2013-01-26 08:57:00,
2013-01-26 03:02:00,-3.2,-7.3,30.35,West,266,0.0,0.0,82,0.00,,,0.00,Wunderground v.1.13,2013-01-26 09:02:00,
2013-01-26 03:06:00,-3.1,-7.2,30.34,West,266,0.0,0.0,82,0.00,,,0.00,Wunderground v.1.13,2013-01-26 09:06:00,
2013-01-26 03:09:00,-3.2,-7.3,30.35,West,265,0.0,0.0,82,0.00,,,0.00,Wunderground v.1.13,2013-01-26 09:09:00,
2013-01-26 03:10:00,-3.2,-7.3,30.35,West,265,0.0,1.0,82,0.00,,,0.00,Wunderground v.1.13,2013-01-26 09:10:00,
2013-01-26 03:16:00,-3.2,-7.3,30.34,West,266,1.0,1.0,82,0.00,,,0.00,Wunderground v.1.13,2013-01-26 09:16:00,
2013-01-26 03:17:00,-3.2,-7.3,30.34,West,265,1.0,1.0,82,0.00,,,0.00,Wunderground v.1.13,2013-01-26 09:17:00,
2013-01-26 03:18:00,-3.2,-7.3,30.34,West,266,1.0,1.0,82,0.00,,,0.00,Wunderground v.1.13,2013-01-26 09:18:00,
2013-01-26 03:19:00,-3.3,-7.4,30.34,West,266,1.0,1.0,82,0.00,,,0.00,Wunderground v.1.13,2013-01-26 09:19:00,
2013-01-26 03:22:00,-3.4,-7.5,30.34,West,266,1.0,1.0,82,0.00,,,0.00,Wunderground v.1.13,2013-01-26 09:22:00,
2013-01-26 03:24:00,-3.5,-7.6,30.34,West,266,0.0,1.0,82,0.00,,,0.00,Wunderground v.1.13,2013-01-26 09:24:00,
2013-01-26 03:26:00,-3.5,-7.6,30.34,West,265,0.0,0.0,82,0.00,,,0.00,Wunderground v.1.13,2013-01-26 09:26:00,
2013-01-26 03:29:00,-3.6,-7.7,30.34,West,266,0.0,0.0,82,0.00,,,0.00,Wunderground v.1.13,2013-01-26 09:29:00,
2013-01-26 03:30:00,-3.6,-7.5,30.34,West,265,0.0,0.0,83,0.00,,,0.00,Wunderground v.1.13,2013-01-26 09:30:00,
2013-01-26 03:32:00,-3.6,-7.5,30.34,West,265,0.0,0.0,83,0.00,,,0.00,Wunderground v.1.13,2013-01-26 09:32:00,
2013-01-26 03:33:00,-3.7,-7.6,30.34,West,265,0.0,0.0,83,0.00,,,0.00,Wunderground v.1.13,2013-01-26 09:33:00,
2013-01-26 03:36:00,-3.7,-7.6,30.34,West,265,0.0,0.0,83,0.00,,,0.00,Wunderground v.1.13,2013-01-26 09:36:00,
2013-01-26 03:38:00,-3.7,-7.6,30.34,West,265,0.0,0.0,83,0.00,,,0.00,Wunderground v.1.13,2013-01-26 09:38:00,
2013-01-26 03:40:00,-3.7,-7.6,30.34,West,265,0.0,0.0,83,0.00,,,0.00,Wunderground v.1.13,2013-01-26 09:40:00,
2013-01-26 03:44:00,-3.7,-7.6,30.34,West,265,0.0,0.0,83,0.00,,,0.00,Wunderground v.1.13,2013-01-26 09:44:00,
2013-01-26 03:46:00,-3.7,-7.6,30.34,West,266,0.0,0.0,83,0.00,,,0.00,Wunderground v.1.13,2013-01-26 09:46:00,
2013-01-26 03:47:00,-3.7,-7.6,30.34,West,266,0.0,0.0,83,0.00,,,0.00,Wunderground v.1.13,2013-01-26 09:47:00,
2013-01-26 03:52:00,-3.7,-7.6,30.34,West,266,0.0,0.0,83,0.00,,,0.00,Wunderground v.1.13,2013-01-26 09:52:00,
2013-01-26 03:53:00,-3.7,-7.6,30.34,West,265,0.0,0.0,83,0.00,,,0.00,Wunderground v.1.13,2013-01-26 09:53:00,
2013-01-26 03:54:00,-3.7,-7.6,30.34,West,265,0.0,0.0,83,0.00,,,0.00,Wunderground v.1.13,2013-01-26 09:54:00,
2013-01-26 03:58:00,-3.7,-7.6,30.33,West,265,0.0,0.0,83,0.00,,,0.00,Wunderground v.1.13,2013-01-26 09:58:00,
2013-01-26 04:00:00,-3.7,-7.6,30.33,West,266,0.0,0.0,83,0.00,,,0.00,Wunderground v.1.13,2013-01-26 10:00:00,
2013-01-26 04:01:00,-3.7,-7.6,30.34,West,265,0.0,0.0,83,0.00,,,0.00,Wunderground v.1.13,2013-01-26 10:01:00,
2013-01-26 04:05:00,-3.7,-7.6,30.34,West,266,0.0,0.0,83,0.00,,,0.00,Wunderground v.1.13,2013-01-26 10:05:00,
2013-01-26 04:06:00,-3.7,-7.6,30.34,West,265,0.0,0.0,83,0.00,,,0.00,Wunderground v.1.13,2013-01-26 10:06:00,
2013-01-26 04:09:00,-3.8,-7.7,30.34,West,266,0.0,0.0,83,0.00,,,0.00,Wunderground v.1.13,2013-01-26 10:09:00,
2013-01-26 04:12:00,-3.9,-7.8,30.34,West,266,0.0,0.0,83,0.00,,,0.00,Wunderground v.1.13,2013-01-26 10:12:00,
2013-01-26 04:13:00,-3.9,-7.8,30.34,West,266,0.0,0.0,83,0.00,,,0.00,Wunderground v.1.13,2013-01-26 10:13:00,
2013-01-26 04:16:00,-4.0,-7.9,30.33,West,266,0.0,0.0,83,0.00,,,0.00,Wunderground v.1.13,2013-01-26 10:16:00,
2013-01-26 04:17:00,-4.1,-8.0,30.33,West,266,0.0,0.0,83,0.00,,,0.00,Wunderground v.1.13,2013-01-26 10:17:00,
2013-01-26 04:19:00,-4.2,-8.3,30.33,West,265,0.0,0.0,82,0.00,,,0.00,Wunderground v.1.13,2013-01-26 10:19:00,
2013-01-26 04:22:00,-4.5,-8.6,30.34,West,265,0.0,2.0,82,0.00,,,0.00,Wunderground v.1.13,2013-01-26 10:22:00,
2013-01-26 04:24:00,-4.6,-8.7,30.34,West,265,0.0,2.0,82,0.00,,,0.00,Wunderground v.1.13,2013-01-26 10:24:00,
2013-01-26 04:26:00,-4.8,-8.9,30.34,West,265,1.0,2.0,82,0.00,,,0.00,Wunderground v.1.13,2013-01-26 10:26:00,
2013-01-26 04:28:00,-5.0,-9.1,30.34,West,266,1.0,2.0,82,0.00,,,0.00,Wunderground v.1.13,2013-01-26 10:28:00,
2013-01-26 04:30:00,-5.2,-9.3,30.34,West,265,1.0,2.0,82,0.00,,,0.00,Wunderground v.1.13,2013-01-26 10:30:00,
2013-01-26 04:35:00,-5.6,-9.7,30.34,West,266,2.0,2.0,82,0.00,,,0.00,Wunderground v.1.13,2013-01-26 10:35:00,
2013-01-26 04:37:00,-5.7,-9.8,30.34,West,266,2.0,2.0,82,0.00,,,0.00,Wunderground v.1.13,2013-01-26 10:37:00,
2013-01-26 04:40:00,-5.7,-9.8,30.34,West,266,1.0,1.0,82,0.00,,,0.00,Wunderground v.1.13,2013-01-26 10:40:00,
2013-01-26 04:42:00,-5.7,-9.5,30.34,West,265,0.0,1.0,83,0.00,,,0.00,Wunderground v.1.13,2013-01-26 10:42:00,
2013-01-26 04:43:00,-5.6,-9.4,30.34,West,266,0.0,1.0,83,0.00,,,0.00,Wunderground v.1.13,2013-01-26 10:43:00,
2013-01-26 04:44:00,-5.6,-9.4,30.34,West,266,0.0,1.0,83,0.00,,,0.00,Wunderground v.1.13,2013-01-26 10:44:00,
2013-01-26 04:49:00,-5.3,-9.1,30.34,West,266,0.0,1.0,83,0.00,,,0.00,Wunderground v.1.13,2013-01-26 10:49:00,
2013-01-26 04:50:00,-5.3,-9.1,30.34,West,266,0.0,1.0,83,0.00,,,0.00,Wunderground v.1.13,2013-01-26 10:50:00,
2013-01-26 04:53:00,-5.1,-8.7,30.34,West,266,0.0,1.0,84,0.00,,,0.00,Wunderground v.1.13,2013-01-26 10:53:00,
2013-01-26 04:55:00,-5.0,-8.6,30.34,West,265,0.0,0.0,84,0.00,,,0.00,Wunderground v.1.13,2013-01-26 10:55:00,
2013-01-26 04:59:00,-4.9,-8.7,30.34,West,265,0.0,0.0,83,0.00,,,0.00,Wunderground v.1.13,2013-01-26 10:59:00,
2013-01-26 05:01:00,-4.9,-8.7,30.34,West,266,0.0,0.0,83,0.00,,,0.00,Wunderground v.1.13,2013-01-26 11:01:00,
2013-01-26 05:03:00,-4.9,-8.7,30.34,West,265,0.0,0.0,83,0.00,,,0.00,Wunderground v.1.13,2013-01-26 11:03:00,
2013-01-26 05:04:00,-4.9,-8.5,30.34,West,266,0.0,0.0,84,0.00,,,0.00,Wunderground v.1.13,2013-01-26 11:04:00,
2013-01-26 05:06:00,-4.9,-8.5,30.34,West,266,0.0,1.0,84,0.00,,,0.00,Wunderground v.1.13,2013-01-26 11:06:00,
2013-01-26 05:09:00,-4.9,-8.7,30.34,West,266,0.0,1.0,83,0.00,,,0.00,Wunderground v.1.13,2013-01-26 11:09:00,
2013-01-26 05:10:00,-4.9,-8.7,30.34,West,266,0.0,0.0,83,0.00,,,0.00,Wunderground v.1.13,2013-01-26 11:10:00,
2013-01-26 05:12:00,-4.9,-8.7,30.34,West,265,0.0,0.0,83,0.00,,,0.00,Wunderground v.1.13,2013-01-26 11:12:00,
2013-01-26 05:14:00,-4.9,-8.5,30.34,West,266,0.0,1.0,84,0.00,,,0.00,Wunderground v.1.13,2013-01-26 11:14:00,
2013-01-26 05:17:00,-5.0,-8.8,30.35,West,266,0.0,2.0,83,0.00,,,0.00,Wunderground v.1.13,2013-01-26 11:17:00,
2013-01-26 05:18:00,-5.0,-8.8,30.35,West,266,1.0,2.0,83,0.00,,,0.00,Wunderground v.1.13,2013-01-26 11:18:00,
2013-01-26 05:23:00,-5.6,-9.7,30.35,West,266,2.0,4.0,82,0.00,,,0.00,Wunderground v.1.13,2013-01-26 11:23:00,
2013-01-26 05:24:00,-5.7,-9.8,30.35,West,265,3.0,4.0,82,0.00,,,0.00,Wunderground v.1.13,2013-01-26 11:24:00,
2013-01-26 05:28:00,-5.9,-10.0,30.36,West,265,3.0,3.0,82,0.00,,,0.00,Wunderground v.1.13,2013-01-26 11:28:00,
2013-01-26 05:30:00,-5.8,-9.6,30.36,West,266,3.0,3.0,83,0.00,,,0.00,Wunderground v.1.13,2013-01-26 11:30:00,
2013-01-26 05:31:00,-5.8,-9.6,30.36,West,265,3.0,3.0,83,0.00,,,0.00,Wunderground v.1.13,2013-01-26 11:31:00,
2013-01-26 05:32:00,-5.8,-9.6,30.36,West,266,3.0,3.0,83,0.00,,,0.00,Wunderground v.1.13,2013-01-26 11:32:00,
2013-01-26 05:35:00,-5.8,-9.6,30.36,West,266,2.0,2.0,83,0.00,,,0.00,Wunderground v.1.13,2013-01-26 11:35:00,
2013-01-26 05:36:00,-5.8,-9.6,30.36,West,266,2.0,2.0,83,0.00,,,0.00,Wunderground v.1.13,2013-01-26 11:36:00,
2013-01-26 05:40:00,-5.6,-9.4,30.36,West,265,1.0,1.0,83,0.00,,,0.00,Wunderground v.1.13,2013-01-26 11:40:00,
2013-01-26 05:41:00,-5.5,-9.3,30.35,West,265,1.0,1.0,83,0.00,,,0.00,Wunderground v.1.13,2013-01-26 11:41:00,
2013-01-26 05:43:00,-5.5,-9.3,30.35,West,265,1.0,1.0,83,0.00,,,0.00,Wunderground v.1.13,2013-01-26 11:43:00,
2013-01-26 05:47:00,-5.5,-9.3,30.36,West,265,1.0,1.0,83,0.00,,,0.00,Wunderground v.1.13,2013-01-26 11:47:00,
2013-01-26 05:49:00,-5.4,-9.2,30.36,West,266,0.0,1.0,83,0.00,,,0.00,Wunderground v.1.13,2013-01-26 11:49:00,
2013-01-26 05:51:00,-5.4,-9.2,30.36,West,266,0.0,0.0,83,0.00,,,0.00,Wunderground v.1.13,2013-01-26 11:51:00,
2013-01-26 05:55:00,-5.2,-9.0,30.36,West,266,0.0,1.0,83,0.00,,,0.00,Wunderground v.1.13,2013-01-26 11:55:00,
2013-01-26 05:56:00,-5.2,-9.0,30.36,West,265,0.0,1.0,83,0.00,,,0.00,Wunderground v.1.13,2013-01-26 11:56:00,
2013-01-26 05:57:00,-5.1,-8.7,30.36,West,266,0.0,1.0,84,0.00,,,0.00,Wunderground v.1.13,2013-01-26 11:57:00,
2013-01-26 06:02:00,-5.0,-8.6,30.36,West,266,0.0,0.0,84,0.00,,,0.00,Wunderground v.1.13,2013-01-26 12:02:00,
2013-01-26 06:03:00,-5.0,-8.6,30.36,West,266,0.0,0.0,84,0.00,,,0.00,Wunderground v.1.13,2013-01-26 12:03:00,
2013-01-26 06:07:00,-5.1,-8.9,30.37,West,266,0.0,0.0,83,0.00,,,0.00,Wunderground v.1.13,2013-01-26 12:07:00,
2013-01-26 06:08:00,-5.1,-8.9,30.37,West,266,0.0,0.0,83,0.00,,,0.00,Wunderground v.1.13,2013-01-26 12:08:00,
2013-01-26 06:09:00,-5.1,-8.9,30.37,West,266,0.0,0.0,83,0.00,,,0.00,Wunderground v.1.13,2013-01-26 12:09:00,
2013-01-26 06:13:00,-5.1,-8.9,30.37,West,266,0.0,1.0,83,0.00,,,0.00,Wunderground v.1.13,2013-01-26 12:13:00,
2013-01-26 06:17:00,-5.2,-9.0,30.37,West,265,0.0,0.0,83,0.00,,,0.00,Wunderground v.1.13,2013-01-26 12:17:00,
2013-01-26 06:19:00,-5.3,-9.1,30.37,West,266,0.0,0.0,83,0.00,,,0.00,Wunderground v.1.13,2013-01-26 12:19:00,
2013-01-26 06:20:00,-5.3,-9.1,30.37,West,266,0.0,0.0,83,0.00,,,0.00,Wunderground v.1.13,2013-01-26 12:20:00,
2013-01-26 06:25:00,-5.3,-9.1,30.37,West,266,0.0,0.0,83,0.00,,,0.00,Wunderground v.1.13,2013-01-26 12:25:00,
2013-01-26 06:27:00,-5.3,-9.1,30.37,West,266,0.0,0.0,83,0.00,,,0.00,Wunderground v.1.13,2013-01-26 12:27:00,
2013-01-26 06:30:00,-5.3,-9.1,30.37,West,265,0.0,0.0,83,0.00,,,0.00,Wunderground v.1.13,2013-01-26 12:30:00,
2013-01-26 06:31:00,-5.3,-9.1,30.37,West,265,0.0,0.0,83,0.00,,,0.00,Wunderground v.1.13,2013-01-26 12:31:00,
2013-01-26 06:32:00,-5.3,-9.1,30.37,West,266,0.0,0.0,83,0.00,,,0.00,Wunderground v.1.13,2013-01-26 12:32:00,
2013-01-26 06:34:00,-5.3,-9.1,30.37,West,266,0.0,0.0,83,0.00,,,0.00,Wunderground v.1.13,2013-01-26 12:34:00,
2013-01-26 06:36:00,-5.3,-9.1,30.37,West,265,0.0,0.0,83,0.00,,,0.00,Wunderground v.1.13,2013-01-26 12:36:00,
2013-01-26 06:40:00,-5.4,-9.2,30.37,West,265,0.0,0.0,83,0.00,,,0.00,Wunderground v.1.13,2013-01-26 12:40:00,
2013-01-26 06:41:00,-5.4,-9.2,30.37,West,265,0.0,0.0,83,0.00,,,0.00,Wunderground v.1.13,2013-01-26 12:41:00,
2013-01-26 06:45:00,-5.4,-9.2,30.37,West,266,0.0,0.0,83,0.00,,,0.00,Wunderground v.1.13,2013-01-26 12:45:00,
2013-01-26 06:46:00,-5.4,-9.2,30.37,West,265,0.0,0.0,83,0.00,,,0.00,Wunderground v.1.13,2013-01-26 12:46:00,
2013-01-26 06:47:00,-5.4,-9.2,30.37,West,266,0.0,0.0,83,0.00,,,0.00,Wunderground v.1.13,2013-01-26 12:47:00,
2013-01-26 06:51:00,-5.5,-9.3,30.37,West,266,0.0,1.0,83,0.00,,,0.00,Wunderground v.1.13,2013-01-26 12:51:00,
2013-01-26 06:54:00,-5.5,-9.3,30.37,West,266,0.0,1.0,83,0.00,,,0.00,Wunderground v.1.13,2013-01-26 12:54:00,
2013-01-26 06:57:00,-5.6,-9.4,30.37,West,266,0.0,0.0,83,0.00,,,0.00,Wunderground v.1.13,2013-01-26 12:57:00,
2013-01-26 07:01:00,-5.6,-9.4,30.37,West,266,0.0,0.0,83,0.00,,,0.00,Wunderground v.1.13,2013-01-26 13:01:00,
2013-01-26 07:02:00,-5.7,-9.5,30.37,West,266,0.0,0.0,83,0.00,,,0.00,Wunderground v.1.13,2013-01-26 13:02:00,
2013-01-26 07:04:00,-5.7,-9.5,30.37,West,266,0.0,0.0,83,0.00,,,0.00,Wunderground v.1.13,2013-01-26 13:04:00,
2013-01-26 07:06:00,-5.7,-9.5,30.37,West,266,0.0,0.0,83,0.00,,,0.00,Wunderground v.1.13,2013-01-26 13:06:00,
2013-01-26 07:10:00,-5.6,-9.4,30.37,West,266,0.0,0.0,83,0.00,,,0.00,Wunderground v.1.13,2013-01-26 13:10:00,
2013-01-26 07:11:00,-5.6,-9.4,30.37,West,266,0.0,0.0,83,0.00,,,0.00,Wunderground v.1.13,2013-01-26 13:11:00,
2013-01-26 07:14:00,-5.6,-9.4,30.37,West,266,0.0,0.0,83,0.00,,,0.00,Wunderground v.1.13,2013-01-26 13:14:00,
2013-01-26 07:18:00,-5.6,-9.4,30.37,West,265,0.0,0.0,83,0.00,,,0.00,Wunderground v.1.13,2013-01-26 13:18:00,
2013-01-26 07:19:00,-5.6,-9.4,30.38,West,266,0.0,0.0,83,0.00,,,0.00,Wunderground v.1.13,2013-01-26 13:19:00,
2013-01-26 07:22:00,-5.6,-9.4,30.37,West,266,0.0,1.0,83,0.00,,,0.00,Wunderground v.1.13,2013-01-26 13:22:00,
2013-01-26 07:23:00,-5.6,-9.4,30.38,West,265,0.0,1.0,83,0.00,,,0.00,Wunderground v.1.13,2013-01-26 13:23:00,
2013-01-26 07:24:00,-5.6,-9.4,30.38,West,265,0.0,1.0,83,0.00,,,0.00,Wunderground v.1.13,2013-01-26 13:24:00,
2013-01-26 07:28:00,-5.7,-9.5,30.37,West,265,1.0,1.0,83,0.00,,,0.00,Wunderground v.1.13,2013-01-26 13:28:00,
2013-01-26 07:29:00,-5.7,-9.5,30.37,West,266,1.0,1.0,83,0.00,,,0.00,Wunderground v.1.13,2013-01-26 13:29:00,
2013-01-26 07:30:00,-5.8,-9.6,30.37,West,265,0.0,0.0,83,0.00,,,0.00,Wunderground v.1.13,2013-01-26 13:30:00,
2013-01-26 07:31:00,-5.7,-9.5,30.37,West,266,0.0,0.0,83,0.00,,,0.00,Wunderground v.1.13,2013-01-26 13:31:00,
2013-01-26 07:35:00,-5.7,-9.5,30.37,West,266,0.0,0.0,83,0.00,,,0.00,Wunderground v.1.13,2013-01-26 13:35:00,
2013-01-26 07:41:00,-5.7,-9.5,30.38,West,266,0.0,0.0,83,0.00,,,0.00,Wunderground v.1.13,2013-01-26 13:41:00,
2013-01-26 07:42:00,-5.6,-9.4,30.38,West,266,0.0,0.0,83,0.00,,,0.00,Wunderground v.1.13,2013-01-26 13:42:00,
2013-01-26 07:48:00,-5.5,-9.3,30.38,West,266,0.0,0.0,83,0.00,,,0.00,Wunderground v.1.13,2013-01-26 13:48:00,
2013-01-26 07:49:00,-5.6,-9.4,30.38,West,266,0.0,0.0,83,0.00,,,0.00,Wunderground v.1.13,2013-01-26 13:49:00,
2013-01-26 07:54:00,-5.5,-9.3,30.37,West,265,0.0,0.0,83,0.00,,,0.00,Wunderground v.1.13,2013-01-26 13:54:00,
2013-01-26 07:56:00,-5.4,-9.2,30.38,West,265,0.0,0.0,83,0.00,,,0.00,Wunderground v.1.13,2013-01-26 13:56:00,
2013-01-26 07:57:00,-5.4,-9.2,30.38,West,266,0.0,0.0,83,0.00,,,0.00,Wunderground v.1.13,2013-01-26 13:57:00,
2013-01-26 08:02:00,-5.2,-9.0,30.38,West,265,0.0,0.0,83,0.00,,,0.00,Wunderground v.1.13,2013-01-26 14:02:00,
2013-01-26 08:04:00,-5.0,-8.6,30.38,West,266,0.0,2.0,84,0.00,,,0.00,Wunderground v.1.13,2013-01-26 14:04:00,
2013-01-26 08:08:00,-4.6,-8.2,30.37,West,265,0.0,1.0,84,0.00,,,0.00,Wunderground v.1.13,2013-01-26 14:08:00,
2013-01-26 08:09:00,-4.6,-8.2,30.38,West,266,0.0,1.0,84,0.00,,,0.00,Wunderground v.1.13,2013-01-26 14:09:00,
2013-01-26 08:10:00,-4.5,-8.1,30.38,West,265,0.0,0.0,84,0.00,,,0.00,Wunderground v.1.13,2013-01-26 14:10:00,
2013-01-26 08:14:00,-4.1,-7.7,30.37,West,265,0.0,1.0,84,0.00,,,0.00,Wunderground v.1.13,2013-01-26 14:14:00,
2013-01-26 08:17:00,-3.9,-7.5,30.37,West,266,0.0,2.0,84,0.00,,,0.00,Wunderground v.1.13,2013-01-26 14:17:00,
2013-01-26 08:20:00,-3.6,-7.5,30.37,West,267,1.0,1.0,83,0.00,,,0.00,Wunderground v.1.13,2013-01-26 14:20:00,
2013-01-26 08:22:00,-3.5,-7.1,30.37,West,269,1.0,2.0,84,0.00,,,0.00,Wunderground v.1.13,2013-01-26 14:22:00,
2013-01-26 08:23:00,-3.5,-7.1,30.37,West,269,1.0,2.0,84,0.00,,,0.00,Wunderground v.1.13,2013-01-26 14:23:00,
2013-01-26 08:26:00,-3.1,-6.7,30.38,West,269,1.0,1.0,84,0.00,,,0.00,Wunderground v.1.13,2013-01-26 14:26:00,
2013-01-26 08:28:00,-3.0,-6.6,30.38,West,269,1.0,1.0,84,0.00,,,0.00,Wunderground v.1.13,2013-01-26 14:28:00,
2013-01-26 08:29:00,-2.9,-6.5,30.38,West,269,1.0,1.0,84,0.00,,,0.00,Wunderground v.1.13,2013-01-26 14:29:00,
2013-01-26 08:35:00,-2.5,-6.1,30.37,West,269,1.0,1.0,84,0.00,,,0.00,Wunderground v.1.13,2013-01-26 14:35:00,
2013-01-26 08:37:00,-2.2,-5.8,30.37,West,269,1.0,1.0,84,0.00,,,0.00,Wunderground v.1.13,2013-01-26 14:37:00,
2013-01-26 08:41:00,-1.7,-5.4,30.38,West,268,1.0,2.0,84,0.00,,,0.00,Wunderground v.1.13,2013-01-26 14:41:00,
2013-01-26 08:43:00,-1.6,-5.5,30.37,West,268,1.0,2.0,83,0.00,,,0.00,Wunderground v.1.13,2013-01-26 14:43:00,
2013-01-26 08:46:00,-1.6,-5.5,30.37,West,271,1.0,2.0,83,0.00,,,0.00,Wunderground v.1.13,2013-01-26 14:46:00,
2013-01-26 08:51:00,-1.9,-6.1,30.37,West,271,1.0,1.0,82,0.00,,,0.00,Wunderground v.1.13,2013-01-26 14:51:00,
2013-01-26 08:52:00,-2.0,-6.1,30.37,West,271,1.0,1.0,82,0.00,,,0.00,Wunderground v.1.13,2013-01-26 14:52:00,
2013-01-26 08:58:00,-1.5,-5.4,30.37,West,271,1.0,2.0,83,0.00,,,0.00,Wunderground v.1.13,2013-01-26 14:58:00,
2013-01-26 09:01:00,-1.4,-5.3,30.37,West,271,1.0,2.0,83,0.00,,,0.00,Wunderground v.1.13,2013-01-26 15:01:00,
2013-01-26 09:02:00,-1.3,-5.2,30.37,West,271,1.0,2.0,83,0.00,,,0.00,Wunderground v.1.13,2013-01-26 15:02:00,
2013-01-26 09:04:00,-1.2,-5.1,30.37,West,271,1.0,2.0,83,0.00,,,0.00,Wunderground v.1.13,2013-01-26 15:04:00,
2013-01-26 09:07:00,-1.2,-5.1,30.37,WNW,293,2.0,2.0,83,0.00,,,0.00,Wunderground v.1.13,2013-01-26 15:07:00,
2013-01-26 09:09:00,-1.2,-5.1,30.37,NE,42,2.0,4.0,83,0.00,,,0.00,Wunderground v.1.13,2013-01-26 15:09:00,
2013-01-26 09:11:00,-1.2,-5.1,30.36,NE,42,2.0,3.0,83,0.00,,,0.00,Wunderground v.1.13,2013-01-26 15:11:00,
2013-01-26 09:13:00,-1.1,-5.0,30.37,NE,45,3.0,3.0,83,0.00,,,0.00,Wunderground v.1.13,2013-01-26 15:13:00,
2013-01-26 09:17:00,-0.8,-4.7,30.37,ENE,59,3.0,4.0,83,0.00,,,0.00,Wunderground v.1.13,2013-01-26 15:17:00,
2013-01-26 09:21:00,-0.4,-4.3,30.37,ENE,60,3.0,4.0,83,0.00,,,0.00,Wunderground v.1.13,2013-01-26 15:21:00,
2013-01-26 09:22:00,-0.4,-4.3,30.37,ENE,60,3.0,4.0,83,0.00,,,0.00,Wunderground v.1.13,2013-01-26 15:22:00,
2013-01-26 09:23:00,-0.3,-4.2,30.37,ENE,60,3.0,4.0,83,0.00,,,0.00,Wunderground v.1.13,2013-01-26 15:23:00,
2013-01-26 09:28:00,0.4,-3.5,30.38,ENE,61,2.0,3.0,83,0.00,,,0.00,Wunderground v.1.13,2013-01-26 15:28:00,
2013-01-26 09:29:00,0.5,-3.4,30.38,ENE,61,2.0,3.0,83,0.00,,,0.00,Wunderground v.1.13,2013-01-26 15:29:00,
2013-01-26 09:30:00,0.8,-3.2,30.38,ESE,120,2.0,2.0,83,0.00,,,0.00,Wunderground v.1.13,2013-01-26 15:30:00,
2013-01-26 09:31:00,0.9,-3.1,30.38,ESE,120,2.0,3.0,83,0.00,,,0.00,Wunderground v.1.13,2013-01-26 15:31:00,
2013-01-26 09:34:00,1.4,-2.6,30.38,ESE,121,3.0,5.0,83,0.00,,,0.00,Wunderground v.1.13,2013-01-26 15:34:00,
2013-01-26 09:37:00,1.8,-2.2,30.38,ESE,122,4.0,5.0,83,0.00,,,0.00,Wunderground v.1.13,2013-01-26 15:37:00,
2013-01-26 09:40:00,2.1,-2.1,30.38,SE,125,4.0,8.0,82,0.00,,,0.00,Wunderground v.1.13,2013-01-26 15:40:00,
2013-01-26 09:41:00,2.1,-2.1,30.38,SE,125,4.0,8.0,82,0.00,,,0.00,Wunderground v.1.13,2013-01-26 15:41:00,
2013-01-26 09:45:00,2.0,-2.5,30.38,ESE,114,6.0,7.0,81,0.00,,,0.00,Wunderground v.1.13,2013-01-26 15:45:00,
2013-01-26 09:47:00,2.1,-2.4,30.37,ESE,122,6.0,7.0,81,0.00,,,0.00,Wunderground v.1.13,2013-01-26 15:47:00,
2013-01-26 09:48:00,2.3,-2.2,30.37,ESE,123,6.0,7.0,81,0.00,,,0.00,Wunderground v.1.13,2013-01-26 15:48:00,
2013-01-26 09:50:00,2.6,-1.9,30.37,SE,128,6.0,8.0,81,0.00,,,0.00,Wunderground v.1.13,2013-01-26 15:50:00,
2013-01-26 09:53:00,3.1,-1.4,30.36,SE,125,6.0,8.0,81,0.00,,,0.00,Wunderground v.1.13,2013-01-26 15:53:00,
2013-01-26 09:55:00,3.2,-1.6,30.36,SE,128,6.0,11.0,80,0.00,,,0.00,Wunderground v.1.13,2013-01-26 15:55:00,
2013-01-26 09:56:00,3.2,-1.6,30.36,ESE,115,6.0,11.0,80,0.00,,,0.00,Wunderground v.1.13,2013-01-26 15:56:00,
2013-01-26 09:58:00,3.2,-1.8,30.36,ESE,123,7.0,11.0,79,0.00,,,0.00,Wunderground v.1.13,2013-01-26 15:58:00,
2013-01-26 10:01:00,3.3,-1.7,30.36,ESE,112,8.0,9.0,79,0.00,,,0.00,Wunderground v.1.13,2013-01-26 16:01:00,
2013-01-26 10:04:00,3.4,-1.7,30.36,ESE,110,8.0,10.0,79,0.00,,,0.00,Wunderground v.1.13,2013-01-26 16:04:00,
2013-01-26 10:06:00,3.7,-1.4,30.36,ESE,115,8.0,9.0,79,0.00,,,0.00,Wunderground v.1.13,2013-01-26 16:06:00,
2013-01-26 10:11:00,4.2,-1.1,30.35,ESE,121,9.0,10.0,78,0.00,,,0.00,Wunderground v.1.13,2013-01-26 16:11:00,
2013-01-26 10:13:00,4.3,-1.0,30.35,SE,128,9.0,11.0,78,0.00,,,0.00,Wunderground v.1.13,2013-01-26 16:13:00,
2013-01-26 10:15:00,4.6,-0.8,30.34,ESE,121,10.0,16.0,78,0.00,,,0.00,Wunderground v.1.13,2013-01-26 16:15:00,
2013-01-26 10:16:00,4.5,-1.1,30.34,SE,125,10.0,16.0,77,0.00,,,0.00,Wunderground v.1.13,2013-01-26 16:16:00,
2013-01-26 10:19:00,4.7,-0.7,30.34,ESE,123,11.0,16.0,78,0.00,,,0.00,Wunderground v.1.13,2013-01-26 16:19:00,
2013-01-26 10:21:00,4.9,-0.5,30.34,SE,136,10.0,10.0,78,0.00,,,0.00,Wunderground v.1.13,2013-01-26 16:21:00,
2013-01-26 10:22:00,4.9,-0.5,30.34,ESE,120,10.0,10.0,78,0.00,,,0.00,Wunderground v.1.13,2013-01-26 16:22:00,
2013-01-26 10:23:00,5.0,-0.4,30.34,SE,125,10.0,10.0,78,0.00,,,0.00,Wunderground v.1.13,2013-01-26 16:23:00,
2013-01-26 10:27:00,5.3,-0.3,30.35,ESE,115,7.0,8.0,77,0.00,,,0.00,Wunderground v.1.13,2013-01-26 16:27:00,
2013-01-26 10:28:00,5.3,-0.3,30.35,ESE,122,7.0,8.0,77,0.00,,,0.00,Wunderground v.1.13,2013-01-26 16:28:00,
2013-01-26 10:29:00,5.4,-0.2,30.35,SE,129,7.0,12.0,77,0.00,,,0.00,Wunderground v.1.13,2013-01-26 16:29:00,
2013-01-26 10:32:00,5.4,-0.2,30.35,ESE,123,7.0,10.0,77,0.00,,,0.00,Wunderground v.1.13,2013-01-26 16:32:00,
2013-01-26 10:33:00,5.3,-0.3,30.35,ESE,118,7.0,10.0,77,0.00,,,0.00,Wunderground v.1.13,2013-01-26 16:33:00,
2013-01-26 10:34:00,5.3,-0.3,30.35,SE,125,8.0,10.0,77,0.00,,,0.00,Wunderground v.1.13,2013-01-26 16:34:00,
2013-01-26 10:38:00,5.6,-0.1,30.35,ESE,114,7.0,8.0,77,0.00,,,0.00,Wunderground v.1.13,2013-01-26 16:38:00,
2013-01-26 10:40:00,5.9,0.2,30.35,ESE,119,7.0,8.0,77,0.00,,,0.00,Wunderground v.1.13,2013-01-26 16:40:00,
2013-01-26 10:44:00,6.0,0.1,30.35,ESE,116,5.0,6.0,76,0.00,,,0.00,Wunderground v.1.13,2013-01-26 16:44:00,
2013-01-26 10:47:00,6.3,0.3,30.35,ESE,117,5.0,5.0,76,0.00,,,0.00,Wunderground v.1.13,2013-01-26 16:47:00,
2013-01-26 10:50:00,6.5,0.5,30.35,ESE,121,4.0,6.0,76,0.00,,,0.00,Wunderground v.1.13,2013-01-26 16:50:00,
2013-01-26 10:51:00,6.6,0.6,30.34,ESE,123,4.0,7.0,76,0.00,,,0.00,Wunderground v.1.13,2013-01-26 16:51:00,
2013-01-26 10:52:00,6.6,0.4,30.35,ESE,123,5.0,7.0,75,0.00,,,0.00,Wunderground v.1.13,2013-01-26 16:52:00,
2013-01-26 10:58:00,6.9,0.6,30.35,ESE,120,4.0,6.0,75,0.00,,,0.00,Wunderground v.1.13,2013-01-26 16:58:00,
2013-01-26 11:00:00,7.0,0.5,30.35,ESE,119,4.0,4.0,74,0.00,,,0.00,Wunderground v.1.13,2013-01-26 17:00:00,
2013-01-26 11:02:00,7.1,0.8,30.35,ESE,119,4.0,4.0,75,0.00,,,0.00,Wunderground v.1.13,2013-01-26 17:02:00,
2013-01-26 11:04:00,7.3,1.0,30.35,ESE,119,4.0,4.0,75,0.00,,,0.00,Wunderground v.1.13,2013-01-26 17:04:00,
2013-01-26 11:06:00,7.4,0.8,30.35,ESE,120,4.0,5.0,74,0.00,,,0.00,Wunderground v.1.13,2013-01-26 17:06:00,
2013-01-26 11:11:00,7.7,1.1,30.35,ESE,121,4.0,5.0,74,0.00,,,0.00,Wunderground v.1.13,2013-01-26 17:11:00,
2013-01-26 11:14:00,7.9,1.0,30.36,SE,129,4.0,5.0,73,0.00,,,0.00,Wunderground v.1.13,2013-01-26 17:14:00,
2013-01-26 11:18:00,8.1,1.2,30.35,SE,129,4.0,5.0,73,0.00,,,0.00,Wunderground v.1.13,2013-01-26 17:18:00,
2013-01-26 11:21:00,8.1,0.9,30.36,SE,129,4.0,5.0,72,0.00,,,0.00,Wunderground v.1.13,2013-01-26 17:21:00,
2013-01-26 11:24:00,8.3,1.4,30.36,SE,129,4.0,5.0,73,0.00,,,0.00,Wunderground v.1.13,2013-01-26 17:24:00,
2013-01-26 11:29:00,8.7,1.5,30.36,SE,130,3.0,5.0,72,0.00,,,0.00,Wunderground v.1.13,2013-01-26 17:29:00,
2013-01-26 11:30:00,8.7,1.5,30.36,SE,128,3.0,7.0,72,0.00,,,0.00,Wunderground v.1.13,2013-01-26 17:30:00,
2013-01-26 11:32:00,8.9,1.7,30.36,SE,126,4.0,7.0,72,0.00,,,0.00,Wunderground v.1.13,2013-01-26 17:32:00,
2013-01-26 11:33:00,8.9,1.7,30.35,SE,126,4.0,7.0,72,0.00,,,0.00,Wunderground v.1.13,2013-01-26 17:33:00,
2013-01-26 11:34:00,9.0,1.8,30.35,ESE,115,4.0,8.0,72,0.00,,,0.00,Wunderground v.1.13,2013-01-26 17:34:00,
2013-01-26 11:38:00,9.2,1.7,30.34,ESE,117,6.0,7.0,71,0.00,,,0.00,Wunderground v.1.13,2013-01-26 17:38:00,
2013-01-26 11:39:00,9.2,1.7,30.34,ESE,111,6.0,7.0,71,0.00,,,0.00,Wunderground v.1.13,2013-01-26 17:39:00,
2013-01-26 11:40:00,9.3,1.8,30.34,ESE,120,6.0,6.0,71,0.00,,,0.00,Wunderground v.1.13,2013-01-26 17:40:00,
2013-01-26 11:41:00,9.3,2.1,30.34,ESE,119,6.0,7.0,72,0.00,,,0.00,Wunderground v.1.13,2013-01-26 17:41:00,
2013-01-26 11:45:00,9.4,1.6,30.34,SE,128,6.0,8.0,70,0.00,,,0.00,Wunderground v.1.13,2013-01-26 17:45:00,
2013-01-26 11:46:00,9.3,1.5,30.34,ESE,123,6.0,8.0,70,0.00,,,0.00,Wunderground v.1.13,2013-01-26 17:46:00,
2013-01-26 11:50:00,9.4,1.9,30.33,ESE,119,6.0,6.0,71,0.00,,,0.00,Wunderground v.1.13,2013-01-26 17:50:00,
2013-01-26 11:52:00,9.6,1.8,30.33,ESE,118,6.0,7.0,70,0.00,,,0.00,Wunderground v.1.13,2013-01-26 17:52:00,
2013-01-26 11:53:00,9.6,1.8,30.33,ESE,121,6.0,7.0,70,0.00,,,0.00,Wunderground v.1.13,2013-01-26 17:53:00,
2013-01-26 11:58:00,9.6,1.8,30.33,ESE,123,6.0,8.0,70,0.00,,,0.00,Wunderground v.1.13,2013-01-26 17:58:00,
2013-01-26 11:59:00,9.6,1.8,30.33,ESE,119,6.0,8.0,70,0.00,,,0.00,Wunderground v.1.13,2013-01-26 17:59:00,
2013-01-26 12:00:00,9.7,2.2,30.33,ESE,121,6.0,6.0,71,0.00,,,0.00,Wunderground v.1.13,2013-01-26 18:00:00,
2013-01-26 12:05:00,10.2,2.7,30.33,ESE,102,5.0,9.0,71,0.00,,,0.00,Wunderground v.1.13,2013-01-26 18:05:00,
2013-01-26 12:07:00,10.3,2.4,30.33,ESE,116,5.0,9.0,70,0.00,,,0.00,Wunderground v.1.13,2013-01-26 18:07:00,
2013-01-26 12:09:00,10.3,2.4,30.32,ESE,114,5.0,9.0,70,0.00,,,0.00,Wunderground v.1.13,2013-01-26 18:09:00,
2013-01-26 12:10:00,10.3,2.4,30.32,ESE,115,5.0,9.0,70,0.00,,,0.00,Wunderground v.1.13,2013-01-26 18:10:00,
2013-01-26 12:13:00,10.4,2.2,30.33,ESE,123,6.0,9.0,69,0.00,,,0.00,Wunderground v.1.13,2013-01-26 18:13:00,
2013-01-26 12:15:00,10.5,2.3,30.33,ESE,119,6.0,6.0,69,0.00,,,0.00,Wunderground v.1.13,2013-01-26 18:15:00,
2013-01-26 12:17:00,10.7,2.8,30.33,ESE,117,5.0,6.0,70,0.00,,,0.00,Wunderground v.1.13,2013-01-26 18:17:00,
2013-01-26 12:19:00,10.8,2.9,30.33,NE,41,5.0,7.0,70,0.00,,,0.00,Wunderground v.1.13,2013-01-26 18:19:00,
2013-01-26 12:21:00,10.9,2.7,30.33,ENE,57,4.0,5.0,69,0.00,,,0.00,Wunderground v.1.13,2013-01-26 18:21:00,
2013-01-26 12:25:00,11.0,2.5,30.33,ESE,107,4.0,6.0,68,0.00,,,0.00,Wunderground v.1.13,2013-01-26 18:25:00,
2013-01-26 12:27:00,11.1,2.6,30.32,East,92,4.0,6.0,68,0.00,,,0.00,Wunderground v.1.13,2013-01-26 18:27:00,
2013-01-26 12:31:00,11.3,2.8,30.32,ESE,102,3.0,5.0,68,0.00,,,0.00,Wunderground v.1.13,2013-01-26 18:31:00,
2013-01-26 12:33:00,11.5,3.0,30.32,East,85,3.0,5.0,68,0.00,,,0.00,Wunderground v.1.13,2013-01-26 18:33:00,
2013-01-26 12:35:00,11.6,3.1,30.32,ENE,63,3.0,5.0,68,0.00,,,0.00,Wunderground v.1.13,2013-01-26 18:35:00,
2013-01-26 12:39:00,11.8,3.3,30.32,ESE,109,4.0,6.0,68,0.00,,,0.00,Wunderground v.1.13,2013-01-26 18:39:00,
2013-01-26 12:41:00,11.8,3.3,30.32,East,98,4.0,8.0,68,0.00,,,0.00,Wunderground v.1.13,2013-01-26 18:41:00,
2013-01-26 12:43:00,11.8,3.3,30.32,NE,39,5.0,8.0,68,0.00,,,0.00,Wunderground v.1.13,2013-01-26 18:43:00,
2013-01-26 12:45:00,11.9,3.4,30.32,NE,53,4.0,8.0,68,0.00,,,0.00,Wunderground v.1.13,2013-01-26 18:45:00,
2013-01-26 12:48:00,12.0,3.5,30.31,ESE,121,5.0,7.0,68,0.00,,,0.00,Wunderground v.1.13,2013-01-26 18:48:00,
2013-01-26 12:50:00,12.0,3.1,30.31,ESE,121,5.0,7.0,67,0.00,,,0.00,Wunderground v.1.13,2013-01-26 18:50:00,
2013-01-26 12:51:00,12.1,3.6,30.31,ESE,123,5.0,8.0,68,0.00,,,0.00,Wunderground v.1.13,2013-01-26 18:51:00,
2013-01-26 12:56:00,11.9,3.0,30.31,ESE,121,7.0,8.0,67,0.00,,,0.00,Wunderground v.1.13,2013-01-26 18:56:00,
2013-01-26 12:57:00,12.1,3.2,30.31,ESE,122,7.0,8.0,67,0.00,,,0.00,Wunderground v.1.13,2013-01-26 18:57:00,
2013-01-26 12:58:00,12.2,3.6,30.31,ESE,122,7.0,8.0,68,0.00,,,0.00,Wunderground v.1.13,2013-01-26 18:58:00,
2013-01-26 12:59:00,12.2,3.3,30.31,ESE,121,7.0,8.0,67,0.00,,,0.00,Wunderground v.1.13,2013-01-26 18:59:00,
2013-01-26 13:05:00,12.4,3.2,30.31,ESE,123,6.0,9.0,66,0.00,,,0.00,Wunderground v.1.13,2013-01-26 19:05:00,
2013-01-26 13:06:00,12.4,3.2,30.31,ESE,114,6.0,9.0,66,0.00,,,0.00,Wunderground v.1.13,2013-01-26 19:06:00,
2013-01-26 13:09:00,12.4,3.2,30.31,SE,127,7.0,14.0,66,0.00,,,0.00,Wunderground v.1.13,2013-01-26 19:09:00,
2013-01-26 13:11:00,12.5,3.9,30.31,ESE,109,8.0,8.0,68,0.00,,,0.00,Wunderground v.1.13,2013-01-26 19:11:00,
2013-01-26 13:12:00,12.5,3.6,30.31,ESE,114,8.0,8.0,67,0.00,,,0.00,Wunderground v.1.13,2013-01-26 19:12:00,
2013-01-26 13:18:00,12.7,3.5,30.30,ESE,117,7.0,10.0,66,0.00,,,0.00,Wunderground v.1.13,2013-01-26 19:18:00,
2013-01-26 13:19:00,12.6,3.4,30.30,ESE,122,7.0,12.0,66,0.00,,,0.00,Wunderground v.1.13,2013-01-26 19:19:00,
2013-01-26 13:21:00,12.5,3.6,30.30,ESE,123,7.0,8.0,67,0.00,,,0.00,Wunderground v.1.13,2013-01-26 19:21:00,
2013-01-26 13:22:00,12.6,3.7,30.30,ESE,115,7.0,8.0,67,0.00,,,0.00,Wunderground v.1.13,2013-01-26 19:22:00,
2013-01-26 13:25:00,12.7,3.8,30.30,SE,133,8.0,8.0,67,0.00,,,0.00,Wunderground v.1.13,2013-01-26 19:25:00,
2013-01-26 13:27:00,12.8,3.9,30.30,ESE,123,8.0,12.0,67,0.00,,,0.00,Wunderground v.1.13,2013-01-26 19:27:00,
2013-01-26 13:28:00,12.8,3.6,30.30,ESE,122,8.0,12.0,66,0.00,,,0.00,Wunderground v.1.13,2013-01-26 19:28:00,
2013-01-26 13:30:00,12.7,3.5,30.29,ESE,115,8.0,8.0,66,0.00,,,0.00,Wunderground v.1.13,2013-01-26 19:30:00,
2013-01-26 13:35:00,12.9,4.0,30.29,ESE,117,9.0,9.0,67,0.00,,,0.00,Wunderground v.1.13,2013-01-26 19:35:00,
2013-01-26 13:36:00,12.9,4.0,30.29,SE,128,9.0,9.0,67,0.00,,,0.00,Wunderground v.1.13,2013-01-26 19:36:00,
2013-01-26 13:39:00,13.1,4.2,30.28,ESE,111,9.0,10.0,67,0.00,,,0.00,Wunderground v.1.13,2013-01-26 19:39:00,
2013-01-26 13:42:00,13.2,4.3,30.27,SE,125,9.0,10.0,67,0.00,,,0.00,Wunderground v.1.13,2013-01-26 19:42:00,
2013-01-26 13:45:00,13.4,4.1,30.27,ESE,118,9.0,10.0,66,0.00,,,0.00,Wunderground v.1.13,2013-01-26 19:45:00,
2013-01-26 13:48:00,13.6,4.7,30.27,ESE,115,9.0,10.0,67,0.00,,,0.00,Wunderground v.1.13,2013-01-26 19:48:00,
2013-01-26 13:50:00,13.6,4.3,30.27,ESE,123,10.0,14.0,66,0.00,,,0.00,Wunderground v.1.13,2013-01-26 19:50:00,
2013-01-26 13:51:00,13.6,4.3,30.27,SE,125,10.0,14.0,66,0.00,,,0.00,Wunderground v.1.13,2013-01-26 19:51:00,
2013-01-26 13:53:00,13.5,3.9,30.27,SE,136,10.0,14.0,65,0.00,,,0.00,Wunderground v.1.13,2013-01-26 19:53:00,
2013-01-26 13:57:00,13.6,4.3,30.27,SE,129,11.0,14.0,66,0.00,,,0.00,Wunderground v.1.13,2013-01-26 19:57:00,
2013-01-26 13:58:00,13.5,3.9,30.27,ESE,123,11.0,14.0,65,0.00,,,0.00,Wunderground v.1.13,2013-01-26 19:58:00,
2013-01-26 14:01:00,13.6,4.0,30.26,ESE,121,11.0,14.0,65,0.00,,,0.00,Wunderground v.1.13,2013-01-26 20:01:00,
2013-01-26 14:04:00,14.0,4.7,30.26,ESE,109,10.0,14.0,66,0.00,,,0.00,Wunderground v.1.13,2013-01-26 20:04:00,
2013-01-26 14:05:00,14.1,4.8,30.26,ESE,121,9.0,9.0,66,0.00,,,0.00,Wunderground v.1.13,2013-01-26 20:05:00,
2013-01-26 14:10:00,14.4,4.4,30.25,ESE,117,9.0,10.0,64,0.00,,,0.00,Wunderground v.1.13,2013-01-26 20:10:00,
2013-01-26 14:11:00,14.4,4.4,30.25,ESE,114,9.0,12.0,64,0.00,,,0.00,Wunderground v.1.13,2013-01-26 20:11:00,
2013-01-26 14:12:00,14.5,4.9,30.25,SE,124,9.0,12.0,65,0.00,,,0.00,Wunderground v.1.13,2013-01-26 20:12:00,
2013-01-26 14:16:00,14.8,5.2,30.25,ESE,118,10.0,10.0,65,0.00,,,0.00,Wunderground v.1.13,2013-01-26 20:16:00,
2013-01-26 14:17:00,14.8,5.2,30.25,ESE,105,10.0,10.0,65,0.00,,,0.00,Wunderground v.1.13,2013-01-26 20:17:00,
2013-01-26 14:18:00,14.8,4.5,30.25,ESE,116,10.0,12.0,63,0.00,,,0.00,Wunderground v.1.13,2013-01-26 20:18:00,
2013-01-26 14:24:00,14.8,4.5,30.25,SE,125,10.0,15.0,63,0.00,,,0.00,Wunderground v.1.13,2013-01-26 20:24:00,
2013-01-26 14:26:00,14.7,4.4,30.25,East,88,11.0,11.0,63,0.00,,,0.00,Wunderground v.1.13,2013-01-26 20:26:00,
2013-01-26 14:27:00,14.7,4.4,30.25,ESE,111,11.0,11.0,63,0.00,,,0.00,Wunderground v.1.13,2013-01-26 20:27:00,
2013-01-26 14:30:00,14.7,4.7,30.25,SE,130,11.0,14.0,64,0.00,,,0.00,Wunderground v.1.13,2013-01-26 20:30:00,
2013-01-26 14:31:00,14.7,4.7,30.25,ESE,118,12.0,14.0,64,0.00,,,0.00,Wunderground v.1.13,2013-01-26 20:31:00,
2013-01-26 14:32:00,14.6,4.6,30.25,ESE,123,12.0,14.0,64,0.00,,,0.00,Wunderground v.1.13,2013-01-26 20:32:00,
2013-01-26 14:34:00,14.5,4.2,30.24,ESE,121,12.0,14.0,63,0.00,,,0.00,Wunderground v.1.13,2013-01-26 20:34:00,
2013-01-26 14:37:00,14.5,4.5,30.24,SE,140,13.0,16.0,64,0.00,,,0.00,Wunderground v.1.13,2013-01-26 20:37:00,
2013-01-26 14:40:00,14.6,4.6,30.24,ESE,115,13.0,15.0,64,0.00,,,0.00,Wunderground v.1.13,2013-01-26 20:40:00,
2013-01-26 14:45:00,14.7,5.1,30.24,East,101,12.0,12.0,65,0.00,,,0.00,Wunderground v.1.13,2013-01-26 20:45:00,
2013-01-26 14:46:00,14.7,5.1,30.24,SE,140,12.0,15.0,65,0.00,,,0.00,Wunderground v.1.13,2013-01-26 20:46:00,
2013-01-26 14:49:00,14.8,5.2,30.24,ESE,109,12.0,15.0,65,0.00,,,0.00,Wunderground v.1.13,2013-01-26 20:49:00,
2013-01-26 14:53:00,14.7,5.1,30.25,SE,132,11.0,12.0,65,0.00,,,0.00,Wunderground v.1.13,2013-01-26 20:53:00,
2013-01-26 14:54:00,14.7,4.7,30.24,ESE,116,12.0,12.0,64,0.00,,,0.00,Wunderground v.1.13,2013-01-26 20:54:00,
2013-01-26 14:55:00,14.7,4.7,30.25,ESE,123,12.0,12.0,64,0.00,,,0.00,Wunderground v.1.13,2013-01-26 20:55:00,
2013-01-26 14:59:00,14.8,5.2,30.24,ESE,115,11.0,13.0,65,0.00,,,0.00,Wunderground v.1.13,2013-01-26 20:59:00,
2013-01-26 15:01:00,14.8,4.8,30.24,ESE,123,11.0,12.0,64,0.00,,,0.00,Wunderground v.1.13,2013-01-26 21:01:00,
2013-01-26 15:05:00,14.8,4.8,30.25,ESE,110,10.0,10.0,64,0.00,,,0.00,Wunderground v.1.13,2013-01-26 21:05:00,
2013-01-26 15:06:00,14.8,4.8,30.25,ESE,104,10.0,10.0,64,0.00,,,0.00,Wunderground v.1.13,2013-01-26 21:06:00,
2013-01-26 15:07:00,14.9,5.2,30.25,ESE,105,10.0,10.0,65,0.00,,,0.00,Wunderground v.1.13,2013-01-26 21:07:00,
2013-01-26 15:10:00,14.9,4.9,30.25,ESE,122,9.0,9.0,64,0.00,,,0.00,Wunderground v.1.13,2013-01-26 21:10:00,
2013-01-26 15:11:00,14.8,4.8,30.25,ESE,123,9.0,9.0,64,0.00,,,0.00,Wunderground v.1.13,2013-01-26 21:11:00,
2013-01-26 15:15:00,14.8,5.2,30.25,SE,128,8.0,11.0,65,0.00,,,0.00,Wunderground v.1.13,2013-01-26 21:15:00,
2013-01-26 15:17:00,14.8,5.2,30.25,SE,131,9.0,11.0,65,0.00,,,0.00,Wunderground v.1.13,2013-01-26 21:17:00,
2013-01-26 15:18:00,14.8,5.2,30.25,ESE,119,10.0,11.0,65,0.00,,,0.00,Wunderground v.1.13,2013-01-26 21:18:00,
2013-01-26 15:19:00,14.8,4.8,30.25,ESE,120,10.0,11.0,64,0.00,,,0.00,Wunderground v.1.13,2013-01-26 21:19:00,
2013-01-26 15:22:00,14.9,5.2,30.25,SE,126,9.0,12.0,65,0.00,,,0.00,Wunderground v.1.13,2013-01-26 21:22:00,
2013-01-26 15:24:00,14.9,5.6,30.25,SE,132,9.0,12.0,66,0.00,,,0.00,Wunderground v.1.13,2013-01-26 21:24:00,
2013-01-26 15:25:00,14.9,5.2,30.25,ESE,118,10.0,14.0,65,0.00,,,0.00,Wunderground v.1.13,2013-01-26 21:25:00,
2013-01-26 15:27:00,14.9,5.2,30.25,ESE,122,10.0,14.0,65,0.00,,,0.00,Wunderground v.1.13,2013-01-26 21:27:00,
2013-01-26 15:28:00,14.9,4.9,30.25,SE,126,10.0,14.0,64,0.00,,,0.00,Wunderground v.1.13,2013-01-26 21:28:00,
2013-01-26 15:30:00,15.0,5.3,30.25,East,94,10.0,10.0,65,0.00,,,0.00,Wunderground v.1.13,2013-01-26 21:30:00,
2013-01-26 15:34:00,15.1,5.4,30.24,ESE,102,10.0,10.0,65,0.00,,,0.00,Wunderground v.1.13,2013-01-26 21:34:00,
2013-01-26 15:37:00,15.2,5.9,30.24,SE,125,8.0,9.0,66,0.00,,,0.00,Wunderground v.1.13,2013-01-26 21:37:00,
2013-01-26 15:41:00,15.3,5.6,30.24,SE,124,8.0,10.0,65,0.00,,,0.00,Wunderground v.1.13,2013-01-26 21:41:00,
2013-01-26 15:43:00,15.3,5.6,30.24,ESE,113,9.0,14.0,65,0.00,,,0.00,Wunderground v.1.13,2013-01-26 21:43:00,
2013-01-26 15:44:00,15.3,5.6,30.24,ESE,115,9.0,14.0,65,0.00,,,0.00,Wunderground v.1.13,2013-01-26 21:44:00,
2013-01-26 15:49:00,15.4,6.1,30.24,ESE,109,9.0,11.0,66,0.00,,,0.00,Wunderground v.1.13,2013-01-26 21:49:00,
2013-01-26 15:50:00,15.4,5.7,30.24,ESE,104,9.0,9.0,65,0.00,,,0.00,Wunderground v.1.13,2013-01-26 21:50:00,
2013-01-26 15:54:00,15.4,5.4,30.24,ESE,117,8.0,9.0,64,0.00,,,0.00,Wunderground v.1.13,2013-01-26 21:54:00,
2013-01-26 15:56:00,15.4,5.4,30.23,SE,135,8.0,12.0,64,0.00,,,0.00,Wunderground v.1.13,2013-01-26 21:56:00,
2013-01-26 15:59:00,15.5,5.8,30.23,SE,126,8.0,13.0,65,0.00,,,0.00,Wunderground v.1.13,2013-01-26 21:59:00,
2013-01-26 16:01:00,15.5,5.8,30.23,ESE,108,9.0,12.0,65,0.00,,,0.00,Wunderground v.1.13,2013-01-26 22:01:00,
2013-01-26 16:03:00,15.5,5.5,30.23,ESE,120,10.0,12.0,64,0.00,,,0.00,Wunderground v.1.13,2013-01-26 22:03:00,
2013-01-26 16:06:00,15.6,5.6,30.23,SE,125,10.0,10.0,64,0.00,,,0.00,Wunderground v.1.13,2013-01-26 22:06:00,
2013-01-26 16:07:00,15.6,5.9,30.23,ESE,119,10.0,10.0,65,0.00,,,0.00,Wunderground v.1.13,2013-01-26 22:07:00,
2013-01-26 16:13:00,15.7,5.7,30.23,ESE,115,8.0,13.0,64,0.00,,,0.00,Wunderground v.1.13,2013-01-26 22:13:00,
2013-01-26 16:17:00,15.7,6.0,30.23,ESE,117,8.0,11.0,65,0.00,,,0.00,Wunderground v.1.13,2013-01-26 22:17:00,
2013-01-26 16:18:00,15.8,6.1,30.22,ESE,113,8.0,12.0,65,0.00,,,0.00,Wunderground v.1.13,2013-01-26 22:18:00,
2013-01-26 16:23:00,15.8,6.1,30.22,ESE,121,9.0,11.0,65,0.00,,,0.00,Wunderground v.1.13,2013-01-26 22:23:00,
2013-01-26 16:25:00,15.9,6.2,30.22,ESE,114,9.0,10.0,65,0.00,,,0.00,Wunderground v.1.13,2013-01-26 22:25:00,
2013-01-26 16:30:00,15.9,6.2,30.21,ESE,121,9.0,9.0,65,0.00,,,0.00,Wunderground v.1.13,2013-01-26 22:30:00,
2013-01-26 16:31:00,15.9,6.2,30.21,ESE,119,8.0,12.0,65,0.00,,,0.00,Wunderground v.1.13,2013-01-26 22:31:00,
2013-01-26 16:34:00,15.8,6.1,30.21,ESE,102,9.0,12.0,65,0.00,,,0.00,Wunderground v.1.13,2013-01-26 22:34:00,
2013-01-26 16:37:00,15.8,6.1,30.21,ESE,117,9.0,9.0,65,0.00,,,0.00,Wunderground v.1.13,2013-01-26 22:37:00,
2013-01-26 16:39:00,15.9,6.2,30.21,ESE,118,9.0,9.0,65,0.00,,,0.00,Wunderground v.1.13,2013-01-26 22:39:00,
2013-01-26 16:40:00,15.9,6.5,30.21,SE,128,9.0,12.0,66,0.00,,,0.00,Wunderground v.1.13,2013-01-26 22:40:00,
2013-01-26 16:45:00,15.9,6.5,30.20,ESE,110,10.0,12.0,66,0.00,,,0.00,Wunderground v.1.13,2013-01-26 22:45:00,
2013-01-26 16:46:00,15.9,6.2,30.20,ESE,105,10.0,12.0,65,0.00,,,0.00,Wunderground v.1.13,2013-01-26 22:46:00,
2013-01-26 16:51:00,15.9,6.5,30.20,East,101,12.0,12.0,66,0.00,,,0.00,Wunderground v.1.13,2013-01-26 22:51:00,
2013-01-26 16:53:00,15.9,6.5,30.20,ESE,108,11.0,12.0,66,0.00,,,0.00,Wunderground v.1.13,2013-01-26 22:53:00,
2013-01-26 16:54:00,16.0,6.6,30.20,SE,125,10.0,12.0,66,0.00,,,0.00,Wunderground v.1.13,2013-01-26 22:54:00,
2013-01-26 16:57:00,16.0,6.6,30.20,NE,43,9.0,10.0,66,0.00,,,0.00,Wunderground v.1.13,2013-01-26 22:57:00,
2013-01-26 16:59:00,16.1,6.7,30.20,ESE,107,8.0,10.0,66,0.00,,,0.00,Wunderground v.1.13,2013-01-26 22:59:00,
2013-01-26 17:00:00,16.1,6.7,30.20,ESE,107,8.0,8.0,66,0.00,,,0.00,Wunderground v.1.13,2013-01-26 23:00:00,
2013-01-26 17:02:00,16.1,6.7,30.20,ESE,114,8.0,13.0,66,0.00,,,0.00,Wunderground v.1.13,2013-01-26 23:02:00,
2013-01-26 17:03:00,16.1,6.7,30.20,ESE,103,9.0,13.0,66,0.00,,,0.00,Wunderground v.1.13,2013-01-26 23:03:00,
2013-01-26 17:05:00,16.1,6.7,30.20,ESE,107,9.0,9.0,66,0.00,,,0.00,Wunderground v.1.13,2013-01-26 23:05:00,
2013-01-26 17:06:00,16.1,6.7,30.20,ESE,111,9.0,13.0,66,0.00,,,0.00,Wunderground v.1.13,2013-01-26 23:06:00,
2013-01-26 17:11:00,16.1,6.7,30.20,ESE,107,10.0,10.0,66,0.00,,,0.00,Wunderground v.1.13,2013-01-26 23:11:00,
2013-01-26 17:12:00,16.1,6.7,30.20,ESE,103,10.0,10.0,66,0.00,,,0.00,Wunderground v.1.13,2013-01-26 23:12:00,
2013-01-26 17:13:00,16.1,6.7,30.20,ESE,120,9.0,10.0,66,0.00,,,0.00,Wunderground v.1.13,2013-01-26 23:13:00,
2013-01-26 17:17:00,16.2,6.8,30.20,SE,124,8.0,9.0,66,0.00,,,0.00,Wunderground v.1.13,2013-01-26 23:17:00,
2013-01-26 17:19:00,16.2,7.2,30.20,ESE,104,8.0,9.0,67,0.00,,,0.00,Wunderground v.1.13,2013-01-26 23:19:00,
2013-01-26 17:22:00,16.3,7.3,30.20,ESE,102,7.0,11.0,67,0.00,,,0.00,Wunderground v.1.13,2013-01-26 23:22:00,
2013-01-26 17:24:00,16.3,7.3,30.20,ESE,121,8.0,11.0,67,0.00,,,0.00,Wunderground v.1.13,2013-01-26 23:24:00,
2013-01-26 17:30:00,16.4,7.0,30.19,ESE,121,10.0,10.0,66,0.00,,,0.00,Wunderground v.1.13,2013-01-26 23:30:00,
2013-01-26 17:33:00,16.4,7.3,30.19,ESE,118,10.0,11.0,67,0.00,,,0.00,Wunderground v.1.13,2013-01-26 23:33:00,
2013-01-26 17:36:00,16.4,7.3,30.19,ESE,115,9.0,9.0,67,0.00,,,0.00,Wunderground v.1.13,2013-01-26 23:36:00,
2013-01-26 17:39:00,16.5,7.4,30.19,ESE,117,8.0,11.0,67,0.00,,,0.00,Wunderground v.1.13,2013-01-26 23:39:00,
2013-01-26 17:42:00,16.5,7.4,30.19,ESE,117,8.0,10.0,67,0.00,,,0.00,Wunderground v.1.13,2013-01-26 23:42:00,
2013-01-26 17:45:00,16.5,7.4,30.19,ESE,117,9.0,9.0,67,0.00,,,0.00,Wunderground v.1.13,2013-01-26 23:45:00,
2013-01-26 17:46:00,16.5,7.4,30.19,ESE,111,9.0,10.0,67,0.00,,,0.00,Wunderground v.1.13,2013-01-26 23:46:00,
2013-01-26 17:48:00,16.6,7.5,30.19,SE,126,10.0,10.0,67,0.00,,,0.00,Wunderground v.1.13,2013-01-26 23:48:00,
2013-01-26 17:50:00,16.6,7.5,30.19,ESE,123,9.0,12.0,67,0.00,,,0.00,Wunderground v.1.13,2013-01-26 23:50:00,
2013-01-26 17:53:00,16.7,7.6,30.19,East,98,9.0,12.0,67,0.00,,,0.00,Wunderground v.1.13,2013-01-26 23:53:00,
2013-01-26 17:56:00,16.7,8.0,30.19,SE,124,8.0,11.0,68,0.00,,,0.00,Wunderground v.1.13,2013-01-26 23:56:00,
2013-01-26 17:58:00,16.7,7.6,30.19,ESE,118,8.0,11.0,67,0.00,,,0.00,Wunderground v.1.13,2013-01-26 23:58:00,
2013-01-26 18:01:00,16.8,7.7,30.19,ESE,119,7.0,7.0,67,0.00,,,0.00,Wunderground v.1.13,2013-01-27 00:01:00,
2013-01-26 18:06:00,16.8,8.1,30.19,ESE,122,7.0,7.0,68,0.00,,,0.00,Wunderground v.1.13,2013-01-27 00:06:00,
2013-01-26 18:07:00,16.8,8.1,30.19,ESE,117,6.0,7.0,68,0.00,,,0.00,Wunderground v.1.13,2013-01-27 00:07:00,
2013-01-26 18:08:00,16.8,8.1,30.19,ESE,117,6.0,7.0,68,0.00,,,0.00,Wunderground v.1.13,2013-01-27 00:08:00,
2013-01-26 18:11:00,16.8,8.1,30.19,ESE,121,6.0,7.0,68,0.00,,,0.00,Wunderground v.1.13,2013-01-27 00:11:00,
2013-01-26 18:12:00,16.8,8.4,30.19,ESE,123,6.0,8.0,69,0.00,,,0.00,Wunderground v.1.13,2013-01-27 00:12:00,
2013-01-26 18:13:00,16.8,8.1,30.19,ESE,109,6.0,8.0,68,0.00,,,0.00,Wunderground v.1.13,2013-01-27 00:13:00,
2013-01-26 18:16:00,16.8,8.4,30.19,ESE,115,6.0,7.0,69,0.00,,,0.00,Wunderground v.1.13,2013-01-27 00:16:00,
2013-01-26 18:18:00,16.9,8.2,30.19,SE,127,6.0,7.0,68,0.00,,,0.00,Wunderground v.1.13,2013-01-27 00:18:00,
2013-01-26 18:21:00,16.9,8.2,30.19,SE,125,7.0,7.0,68,0.00,,,0.00,Wunderground v.1.13,2013-01-27 00:21:00,
2013-01-26 18:23:00,17.0,8.3,30.19,ESE,123,6.0,9.0,68,0.00,,,0.00,Wunderground v.1.13,2013-01-27 00:23:00,
2013-01-26 18:24:00,17.0,8.3,30.19,SE,128,6.0,9.0,68,0.00,,,0.00,Wunderground v.1.13,2013-01-27 00:24:00,
2013-01-26 18:25:00,17.0,8.3,30.19,ESE,117,7.0,10.0,68,0.00,,,0.00,Wunderground v.1.13,2013-01-27 00:25:00,
2013-01-26 18:26:00,17.0,8.3,30.19,ESE,118,7.0,10.0,68,0.00,,,0.00,Wunderground v.1.13,2013-01-27 00:26:00,
2013-01-26 18:30:00,17.0,8.3,30.19,ESE,119,7.0,10.0,68,0.00,,,0.00,Wunderground v.1.13,2013-01-27 00:30:00,
2013-01-26 18:31:00,17.1,8.3,30.19,ESE,122,8.0,10.0,68,0.00,,,0.00,Wunderground v.1.13,2013-01-27 00:31:00,
2013-01-26 18:34:00,17.1,8.3,30.18,ESE,119,8.0,11.0,68,0.00,,,0.00,Wunderground v.1.13,2013-01-27 00:34:00,
2013-01-26 18:38:00,17.2,8.8,30.18,SE,125,9.0,11.0,69,0.00,,,0.00,Wunderground v.1.13,2013-01-27 00:38:00,
2013-01-26 18:42:00,17.2,8.8,30.18,SE,126,9.0,9.0,69,0.00,,,0.00,Wunderground v.1.13,2013-01-27 00:42:00,
2013-01-26 18:46:00,17.3,8.9,30.18,SE,132,8.0,9.0,69,0.00,,,0.00,Wunderground v.1.13,2013-01-27 00:46:00,
2013-01-26 18:48:00,17.4,9.0,30.18,SE,126,8.0,9.0,69,0.00,,,0.00,Wunderground v.1.13,2013-01-27 00:48:00,
2013-01-26 18:49:00,17.4,8.6,30.17,ESE,122,8.0,9.0,68,0.00,,,0.00,Wunderground v.1.13,2013-01-27 00:49:00,
2013-01-26 18:52:00,17.5,9.1,30.17,ESE,118,8.0,12.0,69,0.00,,,0.00,Wunderground v.1.13,2013-01-27 00:52:00,
2013-01-26 18:55:00,17.6,8.8,30.17,ESE,113,9.0,9.0,68,0.00,,,0.00,Wunderground v.1.13,2013-01-27 00:55:00,
2013-01-26 18:58:00,17.7,8.9,30.17,ESE,122,10.0,10.0,68,0.00,,,0.00,Wunderground v.1.13,2013-01-27 00:58:00,
2013-01-26 19:02:00,17.8,9.0,30.17,ESE,108,9.0,10.0,68,0.00,,,0.00,Wunderground v.1.13,2013-01-27 01:02:00,
2013-01-26 19:04:00,17.9,9.1,30.17,ESE,118,9.0,10.0,68,0.00,,,0.00,Wunderground v.1.13,2013-01-27 01:04:00,
2013-01-26 19:05:00,17.9,9.1,30.17,ESE,118,9.0,9.0,68,0.00,,,0.00,Wunderground v.1.13,2013-01-27 01:05:00,
2013-01-26 19:08:00,17.9,9.4,30.17,SE,132,8.0,10.0,69,0.00,,,0.00,Wunderground v.1.13,2013-01-27 01:08:00,
2013-01-26 19:10:00,17.9,9.1,30.17,ESE,117,8.0,8.0,68,0.00,,,0.00,Wunderground v.1.13,2013-01-27 01:10:00,
2013-01-26 19:12:00,17.9,9.4,30.17,SE,130,8.0,13.0,69,0.00,,,0.00,Wunderground v.1.13,2013-01-27 01:12:00,
2013-01-26 19:15:00,18.0,9.2,30.17,ESE,118,9.0,9.0,68,0.00,,,0.00,Wunderground v.1.13,2013-01-27 01:15:00,
2013-01-26 19:16:00,18.0,9.2,30.17,ESE,119,9.0,9.0,68,0.00,,,0.00,Wunderground v.1.13,2013-01-27 01:16:00,
2013-01-26 19:20:00,18.1,9.3,30.18,ESE,119,8.0,8.0,68,0.00,,,0.00,Wunderground v.1.13,2013-01-27 01:20:00,
2013-01-26 19:21:00,18.1,9.3,30.18,ESE,118,8.0,8.0,68,0.00,,,0.00,Wunderground v.1.13,2013-01-27 01:21:00,
2013-01-26 19:23:00,18.2,9.7,30.18,SE,128,8.0,9.0,69,0.00,,,0.00,Wunderground v.1.13,2013-01-27 01:23:00,
2013-01-26 19:26:00,18.3,9.5,30.18,ESE,123,7.0,10.0,68,0.00,,,0.00,Wunderground v.1.13,2013-01-27 01:26:00,
2013-01-26 19:27:00,18.3,9.5,30.18,SE,124,7.0,10.0,68,0.00,,,0.00,Wunderground v.1.13,2013-01-27 01:27:00,
2013-01-26 19:29:00,18.4,9.6,30.18,SE,129,7.0,10.0,68,0.00,,,0.00,Wunderground v.1.13,2013-01-27 01:29:00,
2013-01-26 19:30:00,18.4,9.9,30.18,SE,126,7.0,7.0,69,0.00,,,0.00,Wunderground v.1.13,2013-01-27 01:30:00,
2013-01-26 19:32:00,18.4,9.9,30.18,ESE,118,7.0,8.0,69,0.00,,,0.00,Wunderground v.1.13,2013-01-27 01:32:00,
2013-01-26 19:36:00,18.6,9.8,30.17,SE,125,7.0,7.0,68,0.00,,,0.00,Wunderground v.1.13,2013-01-27 01:36:00,
2013-01-26 19:38:00,18.6,9.8,30.17,SE,133,8.0,9.0,68,0.00,,,0.00,Wunderground v.1.13,2013-01-27 01:38:00,
2013-01-26 19:43:00,18.7,9.9,30.16,SE,141,7.0,10.0,68,0.00,,,0.00,Wunderground v.1.13,2013-01-27 01:43:00,
2013-01-26 19:48:00,18.8,10.0,30.16,SE,130,8.0,9.0,68,0.00,,,0.00,Wunderground v.1.13,2013-01-27 01:48:00,
2013-01-26 19:49:00,18.8,10.0,30.16,SE,128,8.0,9.0,68,0.00,,,0.00,Wunderground v.1.13,2013-01-27 01:49:00,
2013-01-26 19:50:00,18.8,10.0,30.16,SE,125,8.0,11.0,68,0.00,,,0.00,Wunderground v.1.13,2013-01-27 01:50:00,
2013-01-26 19:54:00,18.9,10.1,30.16,ESE,121,8.0,11.0,68,0.00,,,0.00,Wunderground v.1.13,2013-01-27 01:54:00,
2013-01-26 19:55:00,18.9,10.4,30.16,SE,137,8.0,8.0,69,0.00,,,0.00,Wunderground v.1.13,2013-01-27 01:55:00,
2013-01-26 19:56:00,19.0,10.2,30.16,ESE,119,8.0,8.0,68,0.00,,,0.00,Wunderground v.1.13,2013-01-27 01:56:00,
2013-01-26 19:57:00,19.0,10.2,30.16,SE,125,8.0,8.0,68,0.00,,,0.00,Wunderground v.1.13,2013-01-27 01:57:00,
2013-01-26 20:00:00,19.0,10.2,30.16,ESE,119,8.0,9.0,68,0.00,,,0.00,Wunderground v.1.13,2013-01-27 02:00:00,
2013-01-26 20:03:00,19.2,10.0,30.15,SE,125,8.0,10.0,67,0.00,,,0.00,Wunderground v.1.13,2013-01-27 02:03:00,
2013-01-26 20:06:00,19.2,10.7,30.16,SE,135,7.0,7.0,69,0.00,,,0.00,Wunderground v.1.13,2013-01-27 02:06:00,
2013-01-26 20:10:00,19.3,10.5,30.16,SE,128,7.0,7.0,68,0.00,,,0.00,Wunderground v.1.13,2013-01-27 02:10:00,
2013-01-26 20:15:00,19.5,11.0,30.15,ESE,122,7.0,7.0,69,0.00,,,0.00,Wunderground v.1.13,2013-01-27 02:15:00,
2013-01-26 20:16:00,19.5,10.6,30.15,ESE,123,7.0,7.0,68,0.00,,,0.00,Wunderground v.1.13,2013-01-27 02:16:00,
2013-01-26 20:17:00,19.5,10.6,30.15,SE,126,7.0,7.0,68,0.00,,,0.00,Wunderground v.1.13,2013-01-27 02:17:00,
2013-01-26 20:21:00,19.5,10.6,30.15,SE,130,7.0,11.0,68,0.00,,,0.00,Wunderground v.1.13,2013-01-27 02:21:00,
2013-01-26 20:22:00,19.5,10.6,30.15,SSE,166,7.0,11.0,68,0.00,,,0.00,Wunderground v.1.13,2013-01-27 02:22:00,
2013-01-26 20:23:00,19.5,11.0,30.15,SE,124,7.0,11.0,69,0.00,,,0.00,Wunderground v.1.13,2013-01-27 02:23:00,
2013-01-26 20:29:00,19.7,10.8,30.16,ESE,114,7.0,10.0,68,0.00,,,0.00,Wunderground v.1.13,2013-01-27 02:29:00,
2013-01-26 20:30:00,19.7,10.8,30.16,SE,127,6.0,8.0,68,0.00,,,0.00,Wunderground v.1.13,2013-01-27 02:30:00,
2013-01-26 20:31:00,19.7,10.8,30.16,ESE,117,6.0,8.0,68,0.00,,,0.00,Wunderground v.1.13,2013-01-27 02:31:00,
2013-01-26 20:36:00,19.9,11.0,30.15,ESE,117,5.0,12.0,68,0.00,,,0.00,Wunderground v.1.13,2013-01-27 02:36:00,
2013-01-26 20:37:00,19.9,10.7,30.15,SE,125,6.0,12.0,67,0.00,,,0.00,Wunderground v.1.13,2013-01-27 02:37:00,
2013-01-26 20:42:00,20.1,10.9,30.15,ESE,121,8.0,8.0,67,0.00,,,0.00,Wunderground v.1.13,2013-01-27 02:42:00,
2013-01-26 20:43:00,20.1,11.2,30.16,SE,125,8.0,10.0,68,0.00,,,0.00,Wunderground v.1.13,2013-01-27 02:43:00,
2013-01-26 20:44:00,20.1,11.2,30.16,SE,126,8.0,10.0,68,0.00,,,0.00,Wunderground v.1.13,2013-01-27 02:44:00,
2013-01-26 20:45:00,20.1,11.2,30.16,ESE,122,8.0,8.0,68,0.00,,,0.00,Wunderground v.1.13,2013-01-27 02:45:00,
2013-01-26 20:50:00,20.1,10.9,30.16,ESE,109,7.0,7.0,67,0.00,,,0.00,Wunderground v.1.13,2013-01-27 02:50:00,
2013-01-26 20:51:00,20.1,10.9,30.16,SE,130,7.0,7.0,67,0.00,,,0.00,Wunderground v.1.13,2013-01-27 02:51:00,
2013-01-26 20:52:00,20.1,10.9,30.16,ESE,121,6.0,7.0,67,0.00,,,0.00,Wunderground v.1.13,2013-01-27 02:52:00,
2013-01-26 20:56:00,20.1,11.2,30.16,ESE,118,5.0,5.0,68,0.00,,,0.00,Wunderground v.1.13,2013-01-27 02:56:00,
2013-01-26 20:57:00,20.1,11.2,30.16,ESE,118,5.0,5.0,68,0.00,,,0.00,Wunderground v.1.13,2013-01-27 02:57:00,
2013-01-26 21:02:00,20.3,11.1,30.16,SE,129,5.0,8.0,67,0.00,,,0.00,Wunderground v.1.13,2013-01-27 03:02:00,
2013-01-26 21:03:00,20.3,11.1,30.16,SE,129,5.0,8.0,67,0.00,,,0.00,Wunderground v.1.13,2013-01-27 03:03:00,
2013-01-26 21:04:00,20.3,11.1,30.16,ESE,123,6.0,8.0,67,0.00,,,0.00,Wunderground v.1.13,2013-01-27 03:04:00,
2013-01-26 21:06:00,20.3,11.1,30.15,SE,128,6.0,7.0,67,0.00,,,0.00,Wunderground v.1.13,2013-01-27 03:06:00,
2013-01-26 21:09:00,20.4,11.5,30.16,SE,124,7.0,9.0,68,0.00,,,0.00,Wunderground v.1.13,2013-01-27 03:09:00,
2013-01-26 21:12:00,20.4,11.2,30.16,ESE,122,6.0,7.0,67,0.00,,,0.00,Wunderground v.1.13,2013-01-27 03:12:00,
2013-01-26 21:15:00,20.4,11.5,30.15,SE,129,5.0,6.0,68,0.00,,,0.00,Wunderground v.1.13,2013-01-27 03:15:00,
2013-01-26 21:20:00,20.4,11.5,30.15,SE,140,5.0,12.0,68,0.00,,,0.00,Wunderground v.1.13,2013-01-27 03:20:00,
2013-01-26 21:21:00,20.5,11.6,30.14,ESE,121,6.0,12.0,68,0.00,,,0.00,Wunderground v.1.13,2013-01-27 03:21:00,
2013-01-26 21:23:00,20.5,11.6,30.14,SE,126,6.0,12.0,68,0.00,,,0.00,Wunderground v.1.13,2013-01-27 03:23:00,
2013-01-26 21:27:00,20.6,11.4,30.14,ESE,115,7.0,9.0,67,0.00,,,0.00,Wunderground v.1.13,2013-01-27 03:27:00,
2013-01-26 21:30:00,20.7,11.5,30.14,SE,128,7.0,9.0,67,0.00,,,0.00,Wunderground v.1.13,2013-01-27 03:30:00,
2013-01-26 21:31:00,20.7,11.5,30.14,SE,125,7.0,9.0,67,0.00,,,0.00,Wunderground v.1.13,2013-01-27 03:31:00,
2013-01-26 21:32:00,20.7,11.8,30.14,ESE,123,6.0,9.0,68,0.00,,,0.00,Wunderground v.1.13,2013-01-27 03:32:00,
2013-01-26 21:36:00,20.7,11.5,30.15,SE,125,6.0,6.0,67,0.00,,,0.00,Wunderground v.1.13,2013-01-27 03:36:00,
2013-01-26 21:38:00,20.7,11.5,30.14,SE,141,5.0,6.0,67,0.00,,,0.00,Wunderground v.1.13,2013-01-27 03:38:00,
2013-01-26 21:40:00,20.8,11.6,30.14,SE,138,5.0,6.0,67,0.00,,,0.00,Wunderground v.1.13,2013-01-27 03:40:00,
2013-01-26 21:42:00,20.8,11.6,30.14,ESE,123,6.0,8.0,67,0.00,,,0.00,Wunderground v.1.13,2013-01-27 03:42:00,
2013-01-26 21:46:00,20.8,11.6,30.14,ESE,118,6.0,8.0,67,0.00,,,0.00,Wunderground v.1.13,2013-01-27 03:46:00,
2013-01-26 21:48:00,20.8,11.6,30.14,SE,125,7.0,9.0,67,0.00,,,0.00,Wunderground v.1.13,2013-01-27 03:48:00,
2013-01-26 21:52:00,20.8,11.6,30.14,ESE,118,7.0,7.0,67,0.00,,,0.00,Wunderground v.1.13,2013-01-27 03:52:00,
2013-01-26 21:53:00,20.9,11.7,30.14,ESE,123,7.0,7.0,67,0.00,,,0.00,Wunderground v.1.13,2013-01-27 03:53:00,
2013-01-26 21:55:00,20.9,11.7,30.14,ESE,123,6.0,7.0,67,0.00,,,0.00,Wunderground v.1.13,2013-01-27 03:55:00,
2013-01-26 21:57:00,20.8,11.9,30.14,SE,126,6.0,7.0,68,0.00,,,0.00,Wunderground v.1.13,2013-01-27 03:57:00,
2013-01-26 22:03:00,20.8,11.6,30.13,ESE,122,6.0,7.0,67,0.00,,,0.00,Wunderground v.1.13,2013-01-27 04:03:00,
2013-01-26 22:04:00,20.8,11.9,30.13,SE,125,6.0,7.0,68,0.00,,,0.00,Wunderground v.1.13,2013-01-27 04:04:00,
2013-01-26 22:06:00,20.8,11.9,30.13,SE,126,6.0,9.0,68,0.00,,,0.00,Wunderground v.1.13,2013-01-27 04:06:00,
2013-01-26 22:09:00,20.9,12.0,30.13,ESE,119,6.0,9.0,68,0.00,,,0.00,Wunderground v.1.13,2013-01-27 04:09:00,
2013-01-26 22:12:00,20.9,12.0,30.13,SE,125,6.0,9.0,68,0.00,,,0.00,Wunderground v.1.13,2013-01-27 04:12:00,
2013-01-26 22:13:00,20.9,12.0,30.13,SE,125,6.0,9.0,68,0.00,,,0.00,Wunderground v.1.13,2013-01-27 04:13:00,
2013-01-26 22:15:00,20.9,12.0,30.13,ESE,121,6.0,6.0,68,0.00,,,0.00,Wunderground v.1.13,2013-01-27 04:15:00,
2013-01-26 22:18:00,20.9,12.0,30.13,ESE,120,6.0,7.0,68,0.00,,,0.00,Wunderground v.1.13,2013-01-27 04:18:00,
2013-01-26 22:23:00,20.9,12.0,30.12,ESE,115,7.0,9.0,68,0.00,,,0.00,Wunderground v.1.13,2013-01-27 04:23:00,
2013-01-26 22:26:00,20.9,12.0,30.13,ESE,119,7.0,8.0,68,0.00,,,0.00,Wunderground v.1.13,2013-01-27 04:26:00,
2013-01-26 22:28:00,21.0,11.8,30.13,ESE,113,6.0,8.0,67,0.00,,,0.00,Wunderground v.1.13,2013-01-27 04:28:00,
2013-01-26 22:30:00,21.0,12.1,30.13,SE,130,6.0,6.0,68,0.00,,,0.00,Wunderground v.1.13,2013-01-27 04:30:00,
2013-01-26 22:31:00,21.0,12.1,30.13,SE,130,6.0,6.0,68,0.00,,,0.00,Wunderground v.1.13,2013-01-27 04:31:00,
2013-01-26 22:32:00,21.0,12.1,30.13,SE,127,5.0,6.0,68,0.00,,,0.00,Wunderground v.1.13,2013-01-27 04:32:00,
2013-01-26 22:36:00,21.0,12.4,30.13,SE,128,5.0,5.0,69,0.00,,,0.00,Wunderground v.1.13,2013-01-27 04:36:00,
2013-01-26 22:37:00,21.0,12.4,30.13,SE,125,5.0,5.0,69,0.00,,,0.00,Wunderground v.1.13,2013-01-27 04:37:00,
2013-01-26 22:40:00,20.9,12.0,30.14,ESE,111,5.0,5.0,68,0.00,,,0.00,Wunderground v.1.13,2013-01-27 04:40:00,
2013-01-26 22:42:00,21.0,12.1,30.13,ESE,113,5.0,5.0,68,0.00,,,0.00,Wunderground v.1.13,2013-01-27 04:42:00,
2013-01-26 22:43:00,21.0,12.1,30.13,ESE,119,5.0,5.0,68,0.00,,,0.00,Wunderground v.1.13,2013-01-27 04:43:00,
2013-01-26 22:47:00,21.1,12.2,30.13,ESE,119,6.0,7.0,68,0.00,,,0.00,Wunderground v.1.13,2013-01-27 04:47:00,
2013-01-26 22:49:00,21.1,12.2,30.13,SE,126,6.0,7.0,68,0.00,,,0.00,Wunderground v.1.13,2013-01-27 04:49:00,
2013-01-26 22:51:00,21.0,12.4,30.13,SE,129,6.0,6.0,69,0.00,,,0.00,Wunderground v.1.13,2013-01-27 04:51:00,
2013-01-26 22:54:00,20.9,12.3,30.13,ESE,119,6.0,7.0,69,0.00,,,0.00,Wunderground v.1.13,2013-01-27 04:54:00,
2013-01-26 22:56:00,20.9,12.3,30.13,ESE,118,5.0,6.0,69,0.00,,,0.00,Wunderground v.1.13,2013-01-27 04:56:00,
2013-01-26 22:59:00,21.0,12.1,30.14,East,90,5.0,6.0,68,0.00,,,0.00,Wunderground v.1.13,2013-01-27 04:59:00,
2013-01-26 23:00:00,21.0,12.1,30.14,East,86,5.0,5.0,68,0.00,,,0.00,Wunderground v.1.13,2013-01-27 05:00:00,
2013-01-26 23:02:00,21.0,12.1,30.13,East,84,4.0,5.0,68,0.00,,,0.00,Wunderground v.1.13,2013-01-27 05:02:00,
2013-01-26 23:03:00,21.0,12.1,30.13,East,95,4.0,5.0,68,0.00,,,0.00,Wunderground v.1.13,2013-01-27 05:03:00,
2013-01-26 23:04:00,21.1,12.2,30.13,ESE,107,4.0,7.0,68,0.00,,,0.00,Wunderground v.1.13,2013-01-27 05:04:00,
2013-01-26 23:08:00,21.1,12.2,30.13,ESE,111,4.0,4.0,68,0.00,,,0.00,Wunderground v.1.13,2013-01-27 05:08:00,
2013-01-26 23:09:00,21.0,12.1,30.13,ESE,115,4.0,4.0,68,0.00,,,0.00,Wunderground v.1.13,2013-01-27 05:09:00,
2013-01-26 23:10:00,21.0,12.1,30.13,ESE,110,4.0,7.0,68,0.00,,,0.00,Wunderground v.1.13,2013-01-27 05:10:00,
2013-01-26 23:12:00,21.0,12.1,30.13,ESE,117,5.0,7.0,68,0.00,,,0.00,Wunderground v.1.13,2013-01-27 05:12:00,
2013-01-26 23:15:00,20.9,12.0,30.13,East,95,5.0,7.0,68,0.00,,,0.00,Wunderground v.1.13,2013-01-27 05:15:00,
2013-01-26 23:16:00,20.9,12.0,30.13,ESE,103,5.0,7.0,68,0.00,,,0.00,Wunderground v.1.13,2013-01-27 05:16:00,
2013-01-26 23:17:00,20.9,12.0,30.13,ESE,114,5.0,7.0,68,0.00,,,0.00,Wunderground v.1.13,2013-01-27 05:17:00,
2013-01-26 23:21:00,20.8,11.9,30.13,ESE,113,5.0,7.0,68,0.00,,,0.00,Wunderground v.1.13,2013-01-27 05:21:00,
2013-01-26 23:24:00,20.8,12.2,30.13,ESE,115,5.0,7.0,69,0.00,,,0.00,Wunderground v.1.13,2013-01-27 05:24:00,
2013-01-26 23:28:00,20.7,12.1,30.13,East,101,5.0,7.0,69,0.00,,,0.00,Wunderground v.1.13,2013-01-27 05:28:00,
2013-01-26 23:29:00,20.7,12.1,30.13,ESE,111,5.0,9.0,69,0.00,,,0.00,Wunderground v.1.13,2013-01-27 05:29:00,
2013-01-26 23:31:00,20.7,12.1,30.13,ESE,114,5.0,5.0,69,0.00,,,0.00,Wunderground v.1.13,2013-01-27 05:31:00,
2013-01-26 23:32:00,20.8,12.2,30.13,ESE,119,5.0,6.0,69,0.00,,,0.00,Wunderground v.1.13,2013-01-27 05:32:00,
2013-01-26 23:36:00,20.6,12.0,30.13,ESE,121,6.0,8.0,69,0.00,,,0.00,Wunderground v.1.13,2013-01-27 05:36:00,
2013-01-26 23:39:00,20.6,12.4,30.13,ESE,123,6.0,8.0,70,0.00,,,0.00,Wunderground v.1.13,2013-01-27 05:39:00,
2013-01-26 23:42:00,20.6,12.4,30.13,ESE,114,6.0,7.0,70,0.00,,,0.00,Wunderground v.1.13,2013-01-27 05:42:00,
2013-01-26 23:46:00,20.6,12.4,30.13,ESE,114,5.0,6.0,70,0.00,,,0.00,Wunderground v.1.13,2013-01-27 05:46:00,
2013-01-26 23:48:00,20.6,12.0,30.12,ESE,104,6.0,6.0,69,0.00,,,0.00,Wunderground v.1.13,2013-01-27 05:48:00,
2013-01-26 23:52:00,20.7,12.1,30.12,ESE,111,6.0,6.0,69,0.00,,,0.00,Wunderground v.1.13,2013-01-27 05:52:00,
2013-01-26 23:54:00,20.8,12.2,30.12,East,82,5.0,6.0,69,0.00,,,0.00,Wunderground v.1.13,2013-01-27 05:54:00,
2013-01-26 23:58:00,20.8,12.2,30.12,East,93,4.0,5.0,69,0.00,,,0.00,Wunderground v.1.13,2013-01-27 05:58:00,
2013-01-26 23:59:00,20.8,12.2,30.12,East,92,4.0,5.0,69,0.00,,,0.00,Wunderground v.1.13,2013-01-27 05:59:00,